GFSGBSN_prec_radar_066.txt.gz
Reflectivity
-20 -20 -20 -20 -20 -20 -17 6 8 5 -3 8 -16 -11 10 -7 -20 -20 -20 -20 -20 -20 -19 -20 -20 -20 -20 -20 -20 -20 -20 -4 17 10 18 17 21 -20 -20 -10 10 32 24 -10 -20 -20 -20
-7 -20 -20 -20 -20 -20 -20 -16 9 10 -10 9 13 -20 -13 -7 -20 -20 -20 -20 -20 -20 -20 -15 -12 -20 -20 -20 -20 -20 -20 14 30 26 21 18 13 -20 -20 -11 23 28 15 -8 -20 -20 -20
-19 -5 -20 -20 -20 -20 -20 -19 2 8 11 3 6 14 -7 -20 9 -20 -20 -20 -5 -2 -3 -4 8 -20 -20 -20 -20 -20 -20 7 33 30 17 26 20 -18 -20 9 19 11 9 28 17 -20 -7
1 -0 9 -20 -20 -20 -20 -19 7 3 14 -15 13 9 11 -20 -16 7 -20 -20 -20 -20 -20 -20 -20 -20 -20 -20 -20 -20 -20 -20 -11 12 34 21 33 21 3 -20 -3 18 10 30 27 16 8
-17 12 -0 -18 -20 -20 -20 -20 -5 1 8 10 11 12 12 8 -20 -20 -20 -20 -20 -20 -20 -20 -20 -20 -3 -7 -10 -20 -20 -20 0 11 36 25 17 22 -20 -19 3 5 -20 -15 16 -20 4
-20 -9 11 -20 -20 -20 -20 -20 -20 1 7 10 14 11 12 10 8 -20 -20 -20 -20 -20 -20 -20 -20 -20 -20 29 23 -9 -20 -20 -18 11 26 37 17 23 13 -4 -20 -17 -20 -20 -17 -18 -20
-13 5 18 -18 -20 -20 -20 -20 -20 -20 -9 10 14 7 10 9 4 1 -20 -20 -20 -20 -20 -20 -20 -20 -13 32 34 -20 -18 -6 -19 -6 11 40 21 -0 -20 -20 -20 -20 -20 -20 -20 -20 -20
5 17 10 -1 -20 -20 -20 -20 -20 -9 8 14 12 5 12 11 -14 4 -20 -20 -20 -20 -20 -20 -20 -20 -19 26 41 17 7 4 -5 23 9 34 7 7 -10 -20 -20 -20 -20 -20 -20 -20 -20
-4 9 4 -6 -20 -20 -20 -20 -20 -20 -2 7 5 14 12 14 7 -20 -20 -20 -20 -20 -20 -20 -20 -14 -9 15 21 25 19 22 22 13 -2 14 12 -8 15 -7 -3 -20 -20 -20 -20 -20 -3
0 15 12 -19 -20 -20 -20 -20 -20 -20 -6 3 10 12 15 12 -19 -20 -20 -20 -20 -20 -20 -20 -20 -4 -15 8 -3 6 -20 -20 4 4 31 18 -9 -14 -15 -20 -20 -20 -20 -20 -20 -20 -17
-1 10 14 -20 -20 -20 -20 -20 -20 -20 -8 13 1 14 15 15 -20 -20 -20 -20 -20 -20 -20 -20 -20 -20 -17 4 3 4 -20 -20 -20 -1 18 3 -8 -20 15 -8 -20 -20 -20 -20 -20 -20 -20
12 17 -4 -20 -20 -20 -20 -20 -20 -20 -2 12 -12 13 12 2 -20 -20 -20 -20 -20 -20 -20 -20 -20 -0 10 -12 -17 -10 14 -20 -17 -11 16 -2 4 14 9 -20 -20 -20 -20 -20 -20 -20 -20
18 1 -7 -20 -20 -20 -20 -20 -20 -20 -20 -19 -20 11 -17 -20 -20 -20 -20 -20 -20 -20 -20 -12 -20 -20 -20 -4 -20 -20 -2 -20 10 25 32 23 16 -17 -20 -20 -20 -20 -20 -4 -6 -2 -20
6 18 -20 -20 -20 -20 -20 -20 -20 -20 -20 -20 -17 10 -20 -20 -20 -20 -20 -20 -20 -20 -20 -20 -20 -20 9 8 -1 -3 10 1 -7 17 13 13 19 -9 18 5 -17 2 -20 -20 -20 -20 -20
12 1 11 -19 -20 -20 -20 -20 -20 -20 -20 -20 -20 -20 -20 -20 -20 -20 -20 -20 -20 -20 -20 -20 -19 -20 7 -19 -13 3 -20 1 -18 -3 16 -14 8 -20 7 -20 -20 -20 5 -20 -20 -20 -20
2 16 15 -9 -20 -20 -20 -20 -20 -20 -20 -20 -20 -20 -20 -20 -20 -20 -20 -20 -20 -20 -20 -20 2 -20 -20 -10 -8 -14 9 3 -11 -20 -20 -20 -17 -20 -20 -17 -20 -5 -20 -8 -13 -20 -20
26 22 19 -1 -20 -20 -20 -20 -20 -20 -20 -20 -20 -11 -18 -20 -20 -17 -20 -20 -20 -20 -20 -20 -20 -20 -20 -20 -10 -20 -5 5 -20 -20 -20 -20 -20 3 -18 0 9 -3 -12 -17 -11 -20 -20
32 13 30 9 -20 -20 -20 -20 -20 -20 -20 -20 -20 -6 -20 -20 -19 -8 -20 -20 -20 -20 -20 -20 -20 -20 -20 -20 -20 -20 -2 -10 -20 -19 -20 -20 -20 15 12 -20 -20 7 8 -5 3 -19 -20
27 18 22 21 -20 -20 -20 -20 -20 -20 -20 -20 -20 -12 -8 5 -20 -20 -20 -20 -20 -20 -20 -20 -20 -20 -20 0 -20 -20 -20 -20 -17 3 0 -20 -20 -17 -19 -19 -20 -20 -20 -19 -20 -20 -20
27 33 23 -3 -20 -20 -20 -20 -20 -20 -20 -20 -20 -20 9 1 -17 -20 -20 -20 -20 -20 -20 -20 -20 -20 -20 -20 -20 -20 -20 -20 -10 -20 -20 -20 -20 -20 -20 -20 -20 -20 -20 -20 -6 7 -20
28 30 32 -15 -20 -20 -3 -20 -20 -20 -20 -20 -20 -20 -20 -7 -3 -20 -20 -20 -20 -20 -20 -20 -20 -20 -20 -20 -20 -20 -20 -20 -20 -20 -20 -20 -20 -20 -20 -20 -20 -20 -20 -20 -18 -20 -5
30 31 35 -4 -20 -20 -3 -20 -20 -20 -20 -20 -20 -20 -20 -20 -20 -20 -20 -20 -8 -8 -20 -20 -20 -20 -20 -20 -20 -20 -20 -20 -20 -20 -20 -20 -20 -20 -20 -20 -20 -20 -20 -20 -20 -20 -20
29 29 29 22 -7 -19 4 -19 -20 -20 -20 -20 -20 -20 -20 -20 -20 -20 -20 -20 -20 -20 -19 -20 -20 -20 -20 -20 -20 -20 -20 -20 -20 -20 -20 -20 -20 -20 -20 -20 -20 -20 -20 -20 -20 -20 -20
27 27 29 26 26 -20 9 -8 -20 -20 -20 -20 -20 -20 -20 -20 -20 -20 -20 -20 -20 -20 -5 -20 -20 -20 -20 -20 -20 -20 -20 -20 -20 -20 -20 -20 -20 -20 -20 -20 -20 -20 -20 -20 -20 -20 -20
31 26 29 26 20 -15 -1 -9 -20 -20 -20 -20 -20 -20 -20 -20 -20 -20 -20 -20 -20 -20 -20 6 -20 -20 -20 -20 -20 -14 -20 -20 -20 -20 -20 -20 -20 -20 -20 -20 -20 -20 -20 -20 -20 -20 -20
31 32 24 21 21 -14 8 3 -20 -20 -20 -20 -20 -20 -20 -20 -20 -20 -20 -20 -20 -20 -20 -20 -20 -20 -20 -20 -20 -2 -18 -20 -20 -20 -20 -20 -20 -20 -20 -20 -20 -20 -20 -20 -20 -0 -20
29 32 30 27 9 -20 7 2 -20 -20 -20 -20 -20 -20 -20 -20 -20 -20 -20 -20 -20 -20 -20 -20 -20 -16 -2 -20 9 -5 -20 -20 -20 -20 -20 -8 -14 7 -11 -15 -20 -20 -20 -20 -20 -7 -20
29 32 33 29 2 -20 7 -1 -15 -20 -20 -20 -20 -20 -20 -20 -20 -20 -20 -20 -20 -20 -20 -20 -20 -20 24 13 13 -20 -20 -20 -20 -20 -20 -17 5 7 8 8 -9 -20 -20 1 -17 -20 -20
31 30 30 25 2 -20 -8 9 -19 -20 -20 -20 -20 -20 -20 -20 -20 -20 -20 -20 -20 -20 -20 -20 -20 5 0 33 -3 -20 -20 -20 -20 -5 -20 -20 -19 -20 -20 -20 -20 -20 -20 -20 -20 -20 -20

GFSGBSN_prec_radar_072.txt.gz
Reflectivity
12 24 15 -17 -9 -20 -20 -20 -20 -20 -14 -8 -5 -1 13 11 -20 -15 14 -20 -20 -4 1 1 -1 -3 -20 -20 -14 -18 -20 0 1 19 16 1 28 20 1 -20 19 6 15 26 18 7 -20
13 16 26 15 14 -18 -20 -20 -20 -20 -12 -5 2 2 12 15 5 -20 2 14 -19 -2 2 -14 -7 -3 -20 1 -20 -20 -20 -17 24 -19 -1 -12 27 18 9 -17 -2 14 32 18 41 3 -16
5 15 28 20 7 -5 -2 -16 -20 -20 -2 -2 -2 -5 2 16 10 5 -3 7 9 -20 -5 4 -20 -20 -16 -4 -20 -20 -20 -20 -20 3 35 30 -17 11 26 -20 -6 14 33 39 -12 -20 -20
16 12 24 23 -2 -20 13 -20 -4 -20 -5 3 1 3 -9 9 11 9 1 -20 -20 3 -3 -0 -20 -20 -10 -20 -20 -20 -20 -20 2 21 26 23 -4 23 -1 -16 10 21 39 47 37 41 10
-20 10 17 15 -20 11 -1 -19 -20 -20 -20 -6 -20 -7 2 -10 -5 7 11 -20 -20 -20 -20 -20 -20 4 -2 -19 8 -20 -20 -16 14 14 33 -3 19 -0 0 23 19 30 31 24 24 23 32
-20 -6 -14 4 -20 7 6 1 -20 -20 -7 -20 -16 -1 -16 -3 10 11 5 -20 -20 -20 -20 -20 -20 -18 5 19 32 7 -20 -18 25 2 11 -5 30 14 26 19 11 28 17 7 -6 -18 -14
-20 -20 -5 -2 19 9 8 8 -0 -20 -20 -20 -18 -20 -20 3 12 12 -20 -20 -20 -20 -20 -20 -20 11 22 20 23 -20 -20 -17 32 30 2 11 35 -5 -20 -20 -9 12 21 4 -5 5 -3
15 -2 -5 13 26 20 -17 9 3 -20 -20 -20 -20 -20 -8 13 4 7 -20 -20 -20 -20 -20 -20 -20 22 16 -2 6 -20 -17 -2 12 32 20 27 18 -20 -18 -19 11 18 22 31 16 11 2
-10 12 11 17 13 31 3 9 -20 -20 -20 -20 -20 -20 -11 4 -12 -20 -20 -20 -20 -20 -20 -20 -20 -20 -10 13 -19 -13 -3 -6 9 13 34 28 14 26 1 2 -16 -4 -15 10 14 28 24
-9 -17 16 14 11 33 15 18 -10 -20 -20 -20 -20 -20 -20 -1 -19 -18 -20 -20 -20 -20 -20 -14 -7 -12 20 -12 -13 11 20 -19 19 20 9 24 12 -16 8 -20 -20 -20 -20 6 4 -12 -10
11 -7 17 21 6 30 29 21 14 -20 -20 -20 -20 -20 -20 11 -20 -20 -20 -20 -20 -20 2 -5 -20 -20 17 5 22 23 23 14 23 13 -20 28 24 -14 2 -13 -15 -20 -20 -20 -20 -17 -20
17 13 20 22 7 34 32 27 13 -20 -20 -20 -20 -20 0 -20 -20 -20 -20 -20 -20 -19 -20 -20 -18 -20 -12 -0 -10 18 -20 -13 7 0 6 -17 -15 18 30 -13 -20 -20 -20 -20 -20 -18 -19
14 12 24 20 7 19 32 30 10 -12 -20 -20 -20 -20 -18 -20 -13 -20 -20 -20 -14 -16 -20 -20 -10 -18 -20 -18 -11 -2 -16 1 -8 -20 11 -2 -2 -5 2 -20 -20 -20 -20 -20 -20 -20 -20
24 20 24 22 28 19 33 28 20 -11 -20 -20 -20 -20 -20 -8 -20 -20 -20 -20 -20 -20 -18 -20 -15 -20 -20 -20 -14 -20 -14 -20 -20 -20 -20 -4 0 -20 -20 -9 -20 -20 -20 -20 -20 -20 -20
22 22 22 26 33 12 36 36 19 -7 -20 -20 -20 -20 -20 -20 -20 -20 5 -14 -4 -19 -20 -20 -17 -16 -20 -20 9 -20 -20 -2 -20 -20 7 -12 -1 13 -20 -20 -20 -20 -20 -20 -20 -20 -20
19 23 23 26 36 18 33 38 26 16 -20 -20 -20 -16 -19 -20 -20 -20 -18 -20 -20 -20 -20 -20 1 3 -12 -20 -20 -14 -20 -20 -20 -20 -20 -9 -6 -8 -20 -14 -20 -20 -20 -20 -20 -20 -20
18 25 20 29 35 20 31 39 30 33 -20 -20 -20 -18 -20 -20 -20 5 -20 -20 -20 -20 -20 -19 2 -3 3 -20 -20 -20 -2 -20 -20 -20 -20 -20 -20 1 -20 -15 -20 -20 -20 -20 -20 -20 -20
-9 17 27 28 32 26 31 37 34 32 -19 -20 -20 2 -6 -19 0 6 -20 -4 -20 -20 -20 -20 -20 -20 8 3 -11 -20 -20 -16 -20 -20 -20 -20 -20 -20 -5 4 -20 -18 -20 -19 -20 -19 -20
-13 8 30 26 16 31 27 39 36 34 -20 -20 -20 -13 -16 -9 -16 -20 -20 -20 -20 -12 -20 -20 -11 -20 -20 3 6 -10 -5 -20 -18 -20 -20 -20 -20 -20 -20 -20 -20 -20 -20 -20 -20 -20 -20
10 19 33 24 36 13 33 36 38 34 -20 -20 -20 -12 13 -13 -20 -20 -20 -13 -11 -20 -20 -20 -20 -20 -20 -20 -20 -17 -7 -20 -3 -20 -20 -20 -18 -20 -20 -20 -20 -20 -20 -20 -20 -20 -20
12 15 26 27 35 27 33 34 37 30 -20 -20 -20 -20 -20 -13 -16 -20 -20 -4 -9 -20 -20 -20 -20 -20 -13 9 2 -17 -16 -18 -15 -20 -20 -20 -20 -20 -20 -20 -20 -20 -20 -20 -20 -20 -19
8 30 33 31 36 25 37 35 34 21 -20 -20 -20 -20 -20 -20 -20 -20 -20 -20 -15 1 -20 -20 -20 -20 -20 11 -4 11 -20 -20 -20 -20 -20 7 -19 -20 -20 -20 -20 -20 -20 -20 -20 -20 -20
15 32 33 26 22 32 37 35 33 7 -20 -20 -20 -20 -20 -20 -20 -20 -20 -16 -20 -12 -20 -20 -20 -20 -20 -20 -20 -20 -20 -20 -20 -20 -20 8 -20 -20 -8 -20 -20 -20 -20 -20 -20 -20 -20
14 34 27 42 36 35 36 36 30 14 -20 -17 -20 -20 -20 -20 -20 -20 -20 -20 -4 -20 -19 -20 -20 -20 -20 -20 -20 -20 -20 -20 -20 -20 -8 12 -20 -20 -20 -20 -20 -20 -20 -20 -20 -20 -20
19 32 35 32 35 38 37 36 35 6 -20 -20 -20 -20 -20 -20 -20 -20 -20 -20 -20 -20 6 -20 -20 -20 -20 -20 -20 -20 -20 -20 -20 -20 -20 -20 10 -3 -20 -20 -20 -20 -20 -20 -20 -20 -20
22 31 31 10 22 28 36 36 34 6 -11 -20 -20 -20 -20 -20 -20 -20 -20 -20 -20 -20 -20 -20 -20 -20 -20 -20 -20 -7 -20 -19 -19 -20 -20 -20 -9 1 -20 -20 -20 -20 -20 -20 -20 -20 -20
17 22 15 19 26 18 35 37 31 24 -18 -20 -20 -19 -12 -20 -20 -20 -20 -20 -20 -20 -18 -20 -20 -20 -20 -16 -5 -15 10 -20 -20 -20 -20 -20 -20 -20 -18 1 -20 -20 -20 -20 -20 -14 -20
29 33 34 34 37 23 30 36 29 26 -13 -20 -20 -20 -20 -20 -20 -20 -20 -20 -20 -20 -20 -20 -20 -20 -20 -18 -6 -20 -20 -20 -20 -13 -20 -20 -20 -14 -4 14 -16 -20 -20 -20 -20 -20 -20
32 37 39 41 42 34 33 32 32 29 -19 -20 -20 -20 -20 -20 -20 -20 -20 -20 -20 -20 -20 -20 -20 -20 -20 -20 -20 -20 -20 -20 -20 -20 -20 -4 -20 10 -20 -20 -20 -20 -20 -20 -20 -20 -20

GFSGBSN_prec_radar_075.txt.gz
Reflectivity
20 12 16 5 9 6 -20 -20 -20 -20 -20 -20 -3 3 -14 -2 11 14 -18 1 10 -20 -13 5 6 -20 -20 -20 -20 -20 -20 -20 -7 -2 21 -8 6 27 21 -10 23 15 8 28 26 -15 14
-20 2 1 8 25 2 -20 -20 -20 -20 -20 -20 -6 2 5 -19 -18 16 12 -20 2 6 -9 0 11 -20 -8 -20 -20 -20 -20 -19 -20 -19 15 -3 19 28 25 17 13 -20 -7 8 28 24 17
17 -20 -4 17 19 21 12 -20 -20 -20 -20 -20 -6 5 1 -18 4 -6 10 7 1 -20 9 3 13 -20 -15 -20 -20 -20 -20 -19 -12 -20 27 -5 -5 -5 31 13 -20 -6 20 11 38 5 21
20 25 -3 1 21 15 14 -20 0 -20 -20 -20 -20 -20 -1 -15 1 -20 1 12 -20 -20 -2 7 -10 -20 -20 -20 -19 -20 -20 -20 7 -20 18 0 -6 2 33 5 -7 18 21 35 26 15 7
19 13 22 19 2 -3 24 14 1 -12 -1 -20 -20 -20 4 -12 -17 -11 7 3 -20 -20 -20 -20 -14 -20 -5 -20 3 19 -20 -17 -6 -20 -20 -1 -18 15 15 12 13 20 17 26 37 40 43
17 19 -15 21 13 3 -6 23 -2 -6 -11 -20 -20 -18 -20 -14 -20 -9 -16 -20 -20 -20 -20 -20 -20 -3 -4 19 12 -11 -6 -20 14 22 -16 11 6 25 36 21 21 8 -20 -8 30 29 33
10 17 20 0 27 -9 -20 4 25 26 3 -20 -20 -20 -20 -13 -20 -9 -20 -20 -20 -20 -20 -20 -18 4 14 -20 -20 -11 -20 -15 4 13 18 20 15 7 10 11 -12 -20 5 -19 8 34 38
-20 -17 6 9 -8 26 24 -5 25 24 22 -14 -20 -20 -20 -20 -17 -13 -17 -20 -20 -20 -20 -20 -20 -20 -20 -20 -20 -20 -15 15 24 7 -20 -20 27 1 18 15 17 1 31 19 23 18 34
-20 -20 -6 -7 4 9 32 14 22 13 28 18 -20 -20 -20 -20 -20 -20 -20 -20 -20 -20 -20 -20 -20 -20 -20 -17 -20 -20 -8 29 23 -1 3 -20 28 30 21 33 -1 -9 23 16 27 22 31
7 3 2 -9 14 11 26 11 23 23 27 18 -5 -20 -20 -20 -20 -20 -20 -20 -20 -20 -20 -13 -20 -20 -20 -20 -13 -14 0 24 21 13 13 16 17 18 10 25 -12 -2 17 16 12 25 13
9 6 8 -10 2 22 13 25 25 19 27 19 8 -20 -20 -20 -20 -20 -20 -20 -20 -20 -20 -20 -20 -20 -20 -20 -20 -20 -20 4 20 26 14 32 26 10 16 30 14 -14 -20 7 4 17 -2
-1 5 15 19 -20 18 19 31 15 19 26 15 10 -20 -16 -20 -20 -20 -20 -20 -20 -20 -20 -20 -20 -13 -20 -20 -20 -20 5 7 -1 -5 35 5 -17 -20 -20 -20 -1 14 7 13 21 2 -20
19 14 -5 -11 -15 15 22 28 20 32 28 25 11 -15 -20 -20 -20 -20 -20 -20 -20 -20 -20 -18 4 -15 -20 -20 -15 -20 -20 -20 -20 -20 -7 18 -20 -20 -16 -20 -19 -20 -20 -15 5 4 -20
11 15 -19 -17 17 25 20 25 30 27 22 35 5 -13 -20 -20 -20 -20 -20 -20 -20 -20 -20 -20 -7 -12 -20 -20 -20 -1 -20 -20 -20 -20 -20 -20 3 -19 -20 -20 -20 -20 -20 -20 -20 -20 -20
14 21 -7 23 17 21 22 26 36 28 17 37 5 -3 -20 -20 -20 -20 -20 -20 -20 -20 -20 -20 -3 -19 -20 -20 -9 -20 -20 -20 -20 -20 -20 -20 -15 -20 -20 -20 -20 -20 -20 -20 -20 -20 -20
7 -4 -6 26 27 23 27 24 37 17 19 37 14 -4 -20 -20 -20 -20 -17 -20 -20 -20 -20 -20 -9 -20 -20 -20 -17 -11 -20 -20 -20 -20 -20 -20 -12 -20 -20 -20 -20 -20 -20 -20 -20 -20 -20
-5 -2 -6 17 -8 15 29 37 37 28 27 34 33 -0 -20 -20 -20 -16 -20 -20 -20 -20 -20 -20 -20 8 -19 -20 -20 -15 -0 -20 -20 -20 -20 -20 -20 -20 -20 -20 -20 -20 -20 -20 -20 -20 -20
-20 4 9 9 -20 16 33 25 38 32 27 30 27 3 -20 -20 -16 -19 -10 -20 -20 -20 -20 -20 -20 -20 -20 -20 -20 -20 -20 -17 -20 -20 -20 -20 -20 -20 -20 -20 -20 -20 -20 -20 -20 -20 -20
-20 -19 6 6 -20 22 34 16 28 39 27 28 27 -1 -19 -20 -20 -20 -20 -10 -20 -18 -20 -20 -20 -20 -20 -20 -12 -0 -20 -20 -20 -20 -20 -20 -20 -20 -14 -20 -20 -20 -20 -20 -17 -20 -20
-20 -18 -13 8 -0 26 31 28 26 34 31 21 26 2 4 -12 -20 -20 -20 -20 -20 -20 -20 -20 -20 -20 -20 -20 -20 -20 -19 -18 -5 -20 -20 -20 -20 -20 -20 -20 -20 -20 -20 -20 -20 -20 -20
-20 -20 -20 16 20 26 39 41 31 34 29 19 24 -10 -20 -4 -20 -20 -20 -20 -2 -5 -20 -20 -20 -20 -20 -20 -20 -11 -4 -2 1 -20 -20 -20 -20 -20 -20 -20 -20 -20 -20 -20 -20 -20 -20
-20 3 -5 15 21 35 27 36 37 33 31 18 12 -13 -20 -20 -20 -20 -20 -20 -20 -2 -20 -20 -20 -20 -20 -20 -20 -20 -20 -5 2 -20 -20 -20 -20 -20 -20 -20 -20 -20 -20 -20 -20 -20 -20
-11 10 -6 16 26 35 27 27 37 33 28 29 -3 -20 -20 -20 -20 -20 -20 -20 -20 -20 -20 -20 -20 -20 -20 -20 -20 -20 -20 -20 -20 -20 -20 -20 -20 -20 -20 -20 -20 -20 -20 -20 -20 -20 -20
10 8 16 30 36 38 44 38 35 36 32 18 -20 -9 -20 -20 -20 -20 -20 -20 -16 -20 -20 -20 -20 -20 -20 -20 -19 -20 -20 -20 -20 -20 -10 -13 -20 -20 -12 -20 -20 -20 -20 -20 -20 -20 -20
12 16 24 29 37 34 36 39 40 35 29 10 -9 -5 -20 -20 -20 -20 -20 -20 -20 -20 -20 -20 -20 -20 -20 -20 -20 -20 -20 -20 -20 -20 -20 -19 -4 11 -20 -20 -20 -20 -20 -20 -20 -20 -20
14 15 23 25 28 22 12 24 34 34 23 10 -17 -9 -20 -20 -20 -20 -20 -20 -20 -20 -20 -20 -20 -20 -20 -20 -20 -20 -20 -20 -20 -20 -20 -20 -20 -4 -20 -20 -20 -20 -20 -20 -20 -20 -20
10 15 16 15 29 27 27 23 25 30 20 -3 -12 -1 -20 -20 -20 -20 -20 -20 -20 -20 -20 -20 -20 -20 -20 -20 -20 -20 -20 -20 -20 -20 -20 -20 -20 -4 -19 -20 -20 -20 -20 -20 -20 -20 -20
10 6 12 33 40 39 36 36 26 24 26 17 6 -20 -20 -16 -20 -20 -20 -20 -20 -20 -20 -20 -20 -20 -20 -20 -20 -20 -20 -20 -20 -20 -20 -20 -20 -20 -20 -20 -20 -20 -20 -20 -20 -20 -20
13 7 28 35 39 42 39 38 35 28 31 12 -6 -20 -20 -20 -20 -20 -20 -20 -20 -20 -20 -20 -20 -20 -20 -20 -20 -20 -20 -20 -20 -20 -20 -20 -20 -20 -20 -20 -20 -20 -20 -20 -20 -20 -20

GFSGBSN_prec_radar_078.txt.gz
Reflectivity
22 24 20 19 19 18 19 19 23 -9 6 -20 -20 -10 -16 8 2 -8 10 10 -20 5 -3 -14 -13 -7 -20 -20 -20 -20 -20 -20 -20 7 -15 8 10 23 18 -20 1 14 34 21 -10 -20 2
-6 0 17 18 23 19 18 25 24 -12 3 -20 -20 -19 -2 -12 4 4 -14 10 10 0 9 -2 -20 -5 -20 -20 -20 -20 -20 -20 -20 -20 -8 30 39 18 25 15 17 9 31 25 15 10 17
11 -7 -10 22 15 16 18 20 26 17 2 -20 -20 -20 -20 -20 5 1 -19 1 16 15 1 -13 4 -6 -20 -20 -20 -20 -20 -20 -20 -20 -7 12 -14 6 28 -18 -20 18 36 23 27 32 18
-20 -17 7 8 13 0 -0 9 27 29 19 -18 -20 -11 -20 -20 -1 -20 -6 12 10 14 6 -20 0 5 -18 -20 -20 -20 -20 -20 -20 -19 -20 -20 4 19 13 8 16 14 22 -3 15 37 17
-20 -20 -20 11 18 8 -7 25 18 19 28 14 -20 6 -5 -20 -11 -20 -20 -20 -20 1 -18 -5 -5 -20 -10 -5 27 16 -19 -20 -20 -20 -20 -20 -14 23 -4 -13 19 18 32 20 3 34 41
-19 -20 -20 -20 -14 8 -2 23 31 11 23 27 10 -16 0 -20 -20 -20 -20 -20 -20 -20 -20 -20 -20 -17 -14 1 -20 -3 -1 -20 -9 3 -2 -12 -20 -8 29 34 3 16 -5 -11 20 30 38
15 -0 -20 -20 -20 -4 14 5 13 27 22 25 24 -8 -20 -19 -20 -20 -20 -20 -20 -20 -20 -20 -20 -12 -16 -20 -20 -11 -20 -20 18 19 4 -0 -11 -0 14 24 -4 -18 -20 2 5 17 33
-16 3 7 -13 -20 -4 3 17 5 31 23 27 27 -13 -20 -7 -20 -20 -20 -20 -20 -20 -20 -20 -20 -20 -20 -20 -20 -17 -12 13 10 16 -20 -20 5 -20 -9 10 7 11 -6 8 19 20 21
-19 11 13 12 9 -4 4 -4 12 15 30 22 23 7 -20 -0 -11 -20 -20 -20 -20 -20 -20 -20 -20 -20 -20 -20 -1 29 28 30 2 -15 -15 -20 -2 11 25 30 18 18 -20 14 24 12 32
-20 14 19 18 14 -3 7 11 16 11 32 10 31 -8 -20 8 -5 -20 -20 -20 -20 -20 -20 -20 -20 -20 -20 -20 -20 21 11 12 -4 13 8 -17 28 -6 30 30 10 17 17 13 29 32 14
-19 2 4 2 6 10 -19 7 9 10 25 23 28 9 -20 4 -2 -20 -20 -20 -20 -20 -20 -20 -20 -20 -20 -20 -20 -15 36 15 13 -19 -17 29 25 15 -20 34 -19 -9 -6 27 20 37 3
14 -20 10 8 6 -5 -14 -20 -19 22 18 24 26 17 0 9 -6 -20 -20 -20 -20 -20 -20 -20 -20 -20 -20 -20 -20 -20 -20 -18 -14 1 33 27 7 -6 9 -12 -20 0 29 21 22 21 -10
12 -7 -11 3 -6 -20 -19 -9 -0 17 24 27 25 5 -10 18 -11 -20 -20 -20 -20 -20 -20 -20 -20 -20 -20 -20 -20 -20 -20 -20 -17 -6 16 -14 -20 -20 -20 -20 -20 1 13 27 17 -11 -15
-7 14 7 -1 -7 11 -20 25 2 25 29 26 29 27 -19 20 -12 -20 -20 -20 -20 -20 -20 -20 -20 -20 -20 -20 -20 -20 -11 -20 -9 25 -20 -14 10 -20 -20 -19 14 19 3 -1 -20 -20 -20
-20 -20 -20 -17 16 10 10 12 2 17 32 22 26 21 -20 20 -20 -20 -20 -20 -20 -20 -20 -20 -20 -20 -20 -20 -20 -20 -20 -20 -20 -20 -20 -20 -20 -20 -20 -20 -18 -18 -20 -20 -20 -20 -20
-0 8 -7 -20 15 14 4 18 14 -0 26 24 28 20 -4 25 -20 -20 -20 -20 -20 -20 -20 -20 -20 -20 -20 -20 -20 -20 -20 -20 -20 -20 -20 -20 -20 -20 -20 -20 -20 -20 -20 -20 -20 -20 -20
-20 -5 -2 -16 -10 -16 12 14 27 42 32 33 33 12 10 25 -20 3 -20 -20 -20 -20 -20 -20 -5 -20 -20 -20 -20 -20 -20 -20 -20 -20 -20 -20 -20 -20 -20 -20 -20 -20 -20 -20 -20 -20 -20
-20 -20 7 -20 -20 2 4 -13 29 35 37 37 38 26 24 20 -15 -7 -20 -20 -20 -20 -20 -20 -20 -20 -20 -20 -20 -20 -20 -20 -20 -20 -20 -20 -20 -20 -20 -20 -20 -20 -20 -20 -20 -20 -20
-20 -20 -20 -16 2 -20 -3 -16 25 33 33 21 36 29 29 8 -3 -20 -20 -20 -20 -20 -20 -20 -20 -20 -20 -20 -20 -19 -20 -20 -20 -20 -20 -20 -20 -20 -20 -20 -20 -20 -20 -20 -20 -20 -20
-20 -5 11 -9 3 -1 11 8 14 21 36 29 36 33 30 14 -20 -20 -20 -20 -20 -20 -20 -20 -20 -20 -8 -10 -20 -10 -20 -20 -20 -20 -20 -20 -20 -20 -20 -20 -20 -20 -20 -20 -20 -20 -20
21 19 14 13 8 15 12 21 23 36 32 31 33 32 25 12 -3 -20 -20 -20 -16 -14 -20 -20 -20 -20 -20 -5 -20 -20 -20 1 -19 -3 -20 -20 -20 -20 -20 -20 -20 -20 -20 -20 -20 -20 -20
18 17 24 7 -20 16 6 28 30 39 41 33 30 30 26 -20 -20 -20 -20 -20 -20 -20 -20 -20 -20 -20 -20 -20 -20 -20 -20 -17 -20 -20 -20 -20 -20 -20 -20 -20 -20 -20 -20 -20 -20 -20 -20
14 18 18 14 10 22 27 15 37 28 38 34 35 35 13 -20 -20 -20 -20 -20 -8 -20 -20 -20 -20 -20 -20 -20 -20 -20 -20 -20 -20 -20 -20 -20 -20 -20 -20 -20 -20 -20 -20 -20 -20 -20 -20
16 19 12 14 15 27 32 35 34 30 33 34 35 16 19 -20 -20 -20 -20 -20 -20 -20 -20 -20 -20 -20 -20 -20 -20 -20 -20 -20 -20 -20 -20 -20 -20 -20 -20 -20 -20 -20 -20 -20 -20 -20 -20
16 19 12 19 19 29 31 34 39 39 32 33 21 2 11 -20 -20 -20 -20 -20 -11 -15 -20 -20 -20 -20 -20 -20 18 8 -0 -20 -20 -20 -20 -20 -20 -20 -20 -20 -20 -20 -20 -20 -20 -20 -20
19 18 18 12 14 22 15 20 15 35 30 33 8 1 10 -20 -20 -20 -20 -20 -20 -20 -20 -20 -20 -20 -20 -20 -20 -20 -20 -20 -20 -20 -20 -20 -20 -20 -20 -20 -20 -20 -20 -20 -20 -20 -20
13 15 17 14 22 28 29 32 16 15 31 7 5 0 8 -20 -20 -20 -20 -20 -20 -20 -20 -20 -20 -20 -20 -20 -20 -20 -20 -20 -20 -20 -20 -20 -16 -20 -20 -20 -20 -20 -20 -20 -20 -20 -20
6 13 15 5 31 29 23 32 31 29 31 -14 10 4 -6 -10 -20 -20 -20 -20 -20 -20 -20 -20 -20 -20 -20 -20 -20 -20 -20 -20 -20 -20 -20 -20 -20 -20 -20 -20 -17 -20 -20 -20 -20 -20 -20
5 11 10 19 26 25 29 35 31 29 24 -20 9 -5 15 -0 -20 -20 -20 -20 -20 -20 -20 -20 -20 -20 -20 -20 -20 -20 -20 -20 -20 -20 -20 -20 -20 -20 -20 -20 -20 -20 -20 -20 -20 -20 -20

GFSGBSN_prec_radar_081.txt.gz
Reflectivity
10 -11 -20 -20 -15 -19 -2 14 19 27 23 30 13 -20 -12 -20 12 -13 -20 -5 -5 9 0 24 -20 -7 -20 -6 -12 -20 -20 -20 -20 -20 -20 -3 16 -20 6 1 21 12 -20 -13 22 30 -2
15 12 12 10 -11 -20 -20 -20 -2 21 15 28 17 -15 -12 -3 -14 -4 -20 -20 -14 10 -3 6 12 4 -20 -20 -20 -20 -20 -20 -20 -20 -20 -4 13 27 12 28 3 -20 -20 3 28 37 37
14 -19 -19 10 5 -5 -20 -20 -20 4 27 28 21 27 17 -20 -4 9 -20 -20 -13 3 10 -17 -19 17 -20 -20 -20 -20 -20 -20 -20 -20 -20 12 23 23 26 21 20 17 -20 -11 32 25 12
7 9 -19 -20 9 -18 -20 -20 -20 -19 30 27 28 17 27 21 0 -4 4 -20 -19 9 15 -20 -7 -16 -18 -20 -20 -20 -17 -20 -20 -19 -20 -20 28 15 13 25 25 23 22 14 39 27 25
13 15 12 -6 -20 -20 -20 -20 -20 -19 17 -6 26 21 34 29 -20 -12 -11 -20 -20 7 11 4 -5 -7 -20 -20 -20 -20 -7 -20 -20 -20 -20 -12 22 38 36 8 21 18 -17 14 38 -11 22
18 18 14 13 13 -5 -20 -20 -1 -15 1 21 23 25 31 33 -8 -19 -20 -20 -20 -15 -14 -20 -20 -17 -20 4 -20 -15 -19 -19 -17 -2 11 11 3 20 33 13 -1 15 -5 43 15 14 15
-18 16 15 15 13 13 -20 -10 8 -1 14 -20 7 17 27 22 20 -20 -9 -20 -20 -20 -20 -20 -20 -20 -20 -20 -20 -20 -20 -20 -8 13 8 -1 -20 7 -12 -20 -20 19 17 38 16 -0 34
-19 7 15 14 10 14 14 -20 -2 6 0 -19 5 21 27 33 25 -15 -16 -20 -20 -20 -20 -20 -20 -20 -20 -20 -20 -20 -20 13 10 12 10 6 -7 -2 -20 -5 27 -0 12 28 36 26 31
3 15 20 17 16 15 12 13 -20 0 -5 10 15 20 26 27 29 -6 -17 -20 -20 -20 -20 -20 -20 -20 -20 -20 12 21 20 19 14 -10 12 -20 -1 -19 7 14 24 12 -20 -2 14 31 25
1 6 18 19 -18 19 19 9 8 -18 -20 -2 21 21 24 24 15 -5 -15 -20 -20 -20 -20 -20 -20 -20 -20 -20 19 25 -0 -1 -14 -1 -9 -10 -20 -16 -14 -15 25 8 -20 -20 -6 19 14
2 -5 -6 -12 -20 -15 8 12 10 -19 -20 -20 14 26 21 20 35 3 -20 -20 -20 -20 -20 -20 -20 -20 -20 -20 -18 4 27 19 16 -9 -20 3 4 14 30 32 10 -18 -11 -20 -9 9 33
10 12 18 15 5 -20 -8 -5 13 -20 -20 -20 19 24 23 14 22 -5 -20 -20 -20 -20 -20 -20 -20 -20 -20 -20 -20 -20 -11 22 -14 12 14 29 -11 8 29 -13 -17 2 -20 5 8 24 20
-7 -16 -18 11 -20 -20 3 -3 -2 1 -20 -16 20 22 26 13 20 4 -17 -20 -20 -20 -20 -20 -20 -20 -20 -20 -20 -20 -20 -18 -6 5 17 24 25 8 22 6 -17 1 -20 9 15 -5 4
-20 -20 -20 -20 -20 -20 -20 -20 -20 12 -20 -3 19 31 17 22 16 15 -19 -20 -20 -20 -20 -20 -20 -20 -20 -20 -20 -20 -20 -20 -20 -4 -19 3 12 12 -6 -1 19 27 16 4 2 -20 -20
-20 -20 -20 -20 -20 -20 -20 -20 4 13 -14 -16 15 24 28 18 28 8 -20 -20 -20 -20 -20 -20 -20 -20 -20 -20 -20 -20 -20 -20 -20 -20 -20 -20 -5 -7 25 -2 5 30 10 -1 -20 -20 -15
-20 -17 -20 -20 -20 -20 -20 -14 10 34 36 14 4 9 29 22 20 -0 -20 -20 -20 -20 -20 -20 -20 -20 -20 -20 -20 -20 -20 -20 -20 -20 -20 -20 -20 -20 -20 -0 14 2 4 5 -20 -20 -20
13 14 -4 13 -20 -20 -20 -7 20 27 32 41 24 35 32 18 27 3 -20 -20 -20 -20 -20 -20 -20 -20 -20 -20 -20 -20 -20 -20 -20 -20 -20 -20 -20 -20 -20 -20 -20 -20 -20 -20 -20 -20 -20
-20 16 18 24 16 5 -20 -3 10 20 20 27 39 35 34 34 21 -4 -20 -20 -20 -20 -20 -20 -20 -20 -20 -20 -20 -20 -20 -20 -20 -20 -20 -20 -20 -20 -20 -20 -20 -20 -20 -20 -20 -20 -20
-20 13 22 21 18 5 -7 14 8 13 17 34 37 34 33 34 21 2 -20 -20 -20 -20 -20 -20 -20 -20 -20 -20 -20 -20 -20 -20 -20 -20 -20 -20 -20 -20 -20 -20 -20 -20 -20 -20 -20 -20 -20
-7 -9 21 22 19 18 -10 17 18 -6 24 34 32 30 37 33 25 1 -20 -20 -18 -20 -20 -20 -20 -20 -20 -20 -20 -20 -20 -20 -20 -20 -20 -20 -20 -20 -20 -20 -20 -20 -20 -20 -20 -20 -20
6 19 20 18 16 6 11 23 17 -10 27 33 29 32 17 23 29 -17 -20 -20 -20 -20 -20 -20 -20 -20 -20 -20 -20 -20 -20 1 -20 -20 -20 -20 -20 -20 -20 -20 -20 -20 -20 -20 -20 -20 -20
16 19 20 14 20 15 18 15 -16 19 28 33 32 31 34 34 12 -20 -20 -20 -20 -20 -20 -20 -20 -20 -20 -20 -20 -20 -20 -8 -20 -20 -20 -20 -20 -20 -20 -20 -20 -20 -20 -20 -20 -20 -20
19 17 17 20 17 16 20 19 20 27 28 32 30 34 29 33 -20 -20 -20 -20 -20 -20 -20 -20 -20 -20 -20 -20 -20 -20 -20 -20 -20 -20 -20 -20 -20 -20 -20 -20 -20 -20 -20 -20 -20 -20 -20
17 15 16 17 16 18 22 16 25 27 39 29 29 27 31 14 -20 -20 -20 -20 -20 -20 -20 -20 -20 -20 -20 -20 -20 -20 -20 -20 -20 -20 -20 -20 -20 -20 -20 -20 -20 -20 -20 -20 -20 -20 -20
14 14 5 19 15 22 20 13 22 33 34 33 32 25 23 -15 -20 -20 -20 -20 1 -18 -20 -20 -20 -20 -20 -20 -20 -20 -18 -20 -20 -20 -20 -20 -20 -20 -20 -20 -20 -20 -20 -20 -20 -20 -20
15 16 12 13 19 26 27 28 24 13 34 28 25 26 10 -6 -20 -20 -20 -20 -20 -20 -20 -20 -20 -20 -20 -20 -20 -20 -20 -20 -20 -20 -20 -20 -20 -20 -20 -20 -20 -20 -20 -20 -20 -20 -20
4 6 2 12 9 17 22 26 30 31 25 15 26 12 7 -17 -20 -20 -20 -20 -20 -20 -20 -20 -20 -20 -20 -20 -20 -20 -20 -20 -20 -20 -20 -3 -20 -16 -20 -20 -20 -20 -20 -20 -20 -20 -20
11 2 8 12 15 2 0 8 23 29 17 19 24 6 11 -20 -20 -20 -20 -20 -20 -20 -20 -20 -15 -20 -20 -20 -20 -20 -20 -20 -20 -20 -20 -20 -20 -20 -20 -20 -18 -20 -20 -20 -20 -20 -20
9 2 15 14 6 -9 -12 12 21 22 10 22 6 3 9 -20 -20 -20 -20 -20 -20 -20 -20 -20 -20 -20 -20 -20 -20 -20 -20 -20 -20 -20 -20 -20 -20 -20 -20 -20 -20 -20 -20 -20 -20 -20 -20

GFSGBSN_prec_radar_084.txt.gz
Reflectivity
16 15 15 15 18 17 11 7 11 -15 -20 -1 5 22 31 20 27 10 -13 6 -6 12 -14 -17 15 1 -20 -20 -20 -20 -20 -20 -20 -20 -20 -9 5 4 11 -4 -7 13 24 7 -15 -20 9
14 16 11 15 16 17 17 17 17 2 -20 6 13 6 9 14 21 32 15 -20 6 5 8 -20 12 14 -20 -20 -20 -20 -20 -20 -20 -20 -20 9 18 9 -18 3 22 27 -6 22 2 -18 13
18 19 15 15 17 17 14 9 14 6 -0 8 12 22 -8 16 17 34 19 5 9 4 9 -0 -8 19 -19 -20 -20 -20 -20 -20 -20 -20 -20 -20 17 27 17 -18 7 20 24 18 7 -1 9
19 17 8 10 13 11 8 15 11 12 14 10 9 -6 -3 14 0 26 32 2 -10 12 13 15 -3 -5 -15 -20 -20 -20 -20 -20 -20 -20 -20 -20 22 27 33 -13 4 12 21 19 -5 15 32
13 -19 6 13 18 15 13 13 10 9 17 11 11 -20 20 18 -3 15 18 6 1 16 14 12 3 -8 -20 -20 -20 -20 13 -20 -20 -20 -18 -13 16 29 2 35 18 22 17 -6 0 14 18
-20 -4 7 13 15 17 17 16 13 7 8 -10 -9 -8 15 13 16 4 8 3 -4 8 4 6 3 -6 -20 -20 -20 -20 -20 -20 -20 -20 -20 1 13 11 -4 25 -0 18 20 -20 -19 0 18
12 11 10 16 14 10 15 15 0 0 6 -20 -17 -6 21 20 15 -3 3 26 4 0 -20 -20 -20 -20 -20 -20 -20 -20 -20 -20 2 24 13 -13 10 35 41 5 -3 -14 15 -0 1 15 29
18 12 9 13 13 16 13 15 13 15 1 6 -20 -16 19 20 4 13 6 27 -6 -4 -20 -20 -20 -20 -20 -20 -20 -20 -20 -16 -5 12 -14 2 -14 13 35 38 -19 24 0 0 1 33 29
-7 -1 3 -13 -14 10 17 18 11 10 14 -14 -20 15 30 23 16 2 -18 10 22 -14 -20 -20 -20 -20 -20 -20 -20 2 -1 -13 -1 5 -1 6 -6 -20 -20 -13 3 -10 -18 -10 7 35 19
-20 -20 -20 -20 -20 -4 -0 7 16 18 -4 -17 -20 -8 28 17 11 -13 -14 13 -3 -20 -20 -20 -20 -20 -20 -20 -17 -2 -17 -15 -3 -10 -11 -9 -2 -19 -20 20 1 7 1 6 10 12 27
-20 -20 -20 -20 -20 5 -20 -20 -19 0 2 -20 -20 -20 4 21 -1 16 2 3 -16 -20 -20 -20 -20 -20 -20 -20 -20 12 21 12 6 -20 -20 2 -10 -20 -17 -6 27 7 -10 -20 -16 -16 7
12 8 -20 -15 -20 -20 -14 -17 -11 -20 -6 -3 -20 -20 20 21 3 16 -2 10 3 -20 -12 -20 -20 -20 -20 -20 -20 -19 6 6 22 -1 -3 13 1 17 5 28 18 -19 -20 -20 -20 -4 17
10 14 14 14 -20 -20 -20 9 10 -20 -2 -13 -20 -17 27 24 10 19 5 14 -18 -20 -16 -20 -20 -20 -20 -20 -20 -20 -20 -19 30 17 17 19 14 21 7 6 14 8 10 12 2 16 8
7 -20 -20 -20 -20 -13 -5 10 -20 -20 -19 -20 -20 -9 8 15 29 25 14 -2 -12 -18 -15 -20 -20 -20 -20 -20 -20 -20 -20 -8 -18 7 6 -18 -7 14 -17 -15 21 -17 -11 -10 -20 -20 -20
-14 -20 12 3 16 -11 23 -12 -20 -20 -11 23 32 17 14 4 25 23 12 12 -4 -20 -20 -20 -20 -20 -20 -20 -20 -20 -20 -20 -20 -20 -20 -20 11 12 22 -20 -8 8 -6 -13 -20 -20 -20
-2 -11 -20 -20 -7 23 22 10 -12 0 11 32 37 30 29 -6 24 25 23 3 -18 -5 -20 -20 -20 -20 -20 -20 -20 -20 -20 -20 -20 -20 -20 -20 -19 -1 -4 -9 15 13 -4 -20 -16 -8 -20
8 -17 -13 15 17 19 21 20 0 -3 18 32 34 36 13 15 31 31 12 -19 9 -10 -20 -20 -20 -20 -20 -20 -20 -20 -20 -20 -20 -20 -20 -20 -20 -20 -20 34 5 -17 -20 -20 -15 -19 -16
8 -20 -20 -12 17 21 20 18 17 -2 23 18 28 33 24 33 32 24 -2 -18 2 -20 -20 -20 -20 -20 -20 -20 -20 -20 -20 -20 -20 -20 -20 -20 -20 -20 -20 -20 -20 -20 -20 -20 -20 -18 -20
-20 10 -20 12 18 19 20 8 11 7 23 17 29 27 31 32 19 17 7 22 -12 -20 -20 -20 -20 -20 -20 -20 -20 -20 -20 -20 -20 -20 -20 -20 -20 -20 -20 -20 -20 -20 -20 -20 -20 -20 -20
-20 5 6 17 16 21 20 13 8 18 19 27 31 10 34 31 19 -5 17 31 -15 -20 -20 -20 -20 -20 -20 -20 -20 -20 -20 -20 -20 -20 -20 -20 -20 -20 -20 -20 -20 -20 -20 -20 -20 -20 -20
-0 12 10 17 16 18 19 15 16 19 19 33 22 16 6 6 16 25 29 4 -15 -17 -20 -20 -20 -20 -20 -20 -20 -20 -20 -20 -20 -20 -20 -20 -20 -20 -20 -20 -20 -20 -20 -20 -20 -20 -20
9 12 15 18 14 19 -1 9 18 13 23 25 29 18 20 2 9 25 29 -20 -20 -12 -20 -20 -20 -20 -20 -20 -20 -20 -20 -20 -20 -20 -20 -20 -20 -20 -20 -20 -20 -20 -20 -20 -20 -20 -20
13 7 17 17 18 21 19 17 14 -3 24 31 21 -10 16 34 29 20 -11 -20 -19 -20 -20 -20 -20 -20 -20 -20 -20 -20 -20 -20 -20 -20 -20 -20 -20 -20 -20 -20 -20 -20 -20 -20 -20 -20 -20
13 18 19 19 15 12 18 7 20 1 25 30 27 -8 22 10 14 -12 -8 -20 -5 5 -20 -20 -20 -20 -20 -20 -20 -20 -20 -20 -20 -20 -20 -20 -20 -20 -20 -20 -20 -20 -20 -20 -20 -20 -20
17 14 18 19 -1 14 19 21 26 20 18 3 25 20 22 6 -19 -17 -7 -20 -13 8 -8 -20 -20 -20 -17 -20 -20 -8 -1 2 -20 -20 -20 -20 -20 -20 -20 -20 -20 -20 -20 -20 -20 -20 -20
19 7 7 3 13 16 28 17 13 17 15 26 19 11 -1 -20 -20 -20 -20 -20 -20 -16 -20 -20 -20 -20 -20 -12 -20 -9 -20 -20 -20 -20 -12 -20 -20 -20 -20 -20 -20 -20 -20 -20 -20 -20 -20
12 7 5 14 12 10 12 -8 11 31 25 16 -7 -20 -20 -19 -20 -20 -20 -20 -20 -20 -20 -20 -20 -15 -20 -20 -20 -20 -20 -20 -20 -20 -20 -20 -20 -16 -12 -20 -20 -20 -20 -20 -20 -20 -20
13 6 7 -9 12 -10 -18 10 17 22 22 7 -12 -20 -16 -20 -20 -20 -20 -20 -20 -19 -20 -20 -20 -17 -18 -20 -20 -20 -20 -20 -20 -20 -20 -20 -20 -20 -20 -11 -20 -20 -20 -20 -20 -20 -20
6 11 4 5 9 -13 -1 3 22 9 -12 -2 -8 -20 -16 -20 -20 -20 -20 -20 -20 -20 -20 -20 -20 -20 -20 -20 -20 -20 -20 -20 -20 -20 -20 -20 -20 -20 -20 -20 -20 -20 -20 -20 -20 -20 -20

GFSGBSN_prec_radar_090.txt.gz
Reflectivity
14 16 9 -9 12 14 6 14 14 4 13 10 14 17 16 15 4 33 11 8 -11 10 -19 -20 -20 4 -20 -20 -20 -20 -20 -20 -20 -20 -20 -20 -10 2 -15 -1 2 -5 7 -8 -20 -20 -20
-10 4 -0 6 11 -2 -20 -20 12 10 -19 12 12 -19 1 3 -2 21 -8 -5 18 -5 -4 3 -8 -9 -20 0 -20 -20 -20 -20 -20 -20 -20 -20 -20 3 10 -1 19 -7 -2 -20 -20 -20 -20
13 13 14 13 11 15 15 11 -20 -14 7 4 8 7 -20 -2 -15 13 0 23 4 -20 -20 -20 -20 2 9 -1 -20 -20 -20 -20 -20 -20 -20 -20 -20 12 3 -3 -6 16 20 16 -11 -20 -6
12 4 7 14 7 -20 -19 8 4 -20 4 11 15 10 9 -20 -20 -19 20 10 14 -9 -20 -10 5 8 -17 -20 -20 -20 -20 -20 -20 13 -20 1 -17 10 14 -20 4 23 18 16 11 17 -0
11 14 9 -20 -20 13 12 -18 -2 -20 15 4 1 -5 10 -18 -20 23 16 4 26 27 2 2 4 -20 -20 -20 -20 -20 -20 -17 10 -20 -20 -20 9 14 15 28 17 33 -8 -15 -4 8 19
9 -19 -20 -8 -1 -7 -6 -12 14 -0 -4 -20 -20 -20 1 -20 -20 23 14 10 26 1 15 12 8 -14 -20 -20 -20 -20 -20 -20 3 5 -20 9 20 18 25 26 10 17 -20 -16 -16 -7 26
-20 -20 -4 14 15 8 10 14 10 6 18 12 -20 -13 -20 3 32 17 13 -3 -14 9 9 -20 -20 -20 -20 -20 -20 -20 -20 -20 -20 -9 10 20 14 8 18 5 5 -20 5 19 26 28 27
-14 7 8 15 6 24 12 7 13 9 12 13 -18 -20 -20 -9 15 33 31 20 23 -12 -20 -20 -20 -20 -20 -20 -20 -20 -20 -12 12 10 3 13 -1 8 23 12 -3 -17 12 24 25 25 -8
11 6 2 7 2 -5 3 -5 -3 15 12 -7 -20 -20 -20 -20 -20 16 25 27 7 10 -20 -20 -20 -20 -20 -20 -20 -15 -20 -16 -9 -3 7 8 -9 20 25 25 9 11 -11 -7 -2 -7 -10
-15 7 -20 16 -13 8 -20 -20 8 20 -8 10 -20 -20 -13 -19 -17 -8 -17 15 11 -20 -20 -20 -20 -1 -20 -20 -20 -20 -20 -6 -11 8 -1 11 1 8 19 27 -14 10 9 4 10 18 15
-17 -18 -20 7 11 10 -6 -14 14 15 18 -2 -3 -13 11 5 10 12 14 -19 25 -7 -19 -20 -20 -20 -20 -20 -20 -15 5 -18 4 -3 8 -13 -6 -16 -3 -7 -20 21 -5 11 -6 -15 -19
5 3 -15 -18 -20 -4 18 18 13 -3 10 16 7 -20 9 -20 3 -5 32 21 21 12 -20 -20 -8 -14 4 -20 -20 -4 18 16 -3 21 12 -4 9 23 32 24 -14 8 12 -13 -11 5 -15
12 12 -2 -1 -20 -20 1 18 -19 13 21 18 10 18 5 10 1 13 31 28 19 -3 -20 1 -10 -20 -20 -20 -20 -15 8 14 18 8 15 15 19 29 23 22 2 -12 -2 3 -15 -9 1
26 32 21 9 10 10 14 -20 19 21 18 18 19 18 20 -2 -19 19 34 31 -2 -20 -20 -20 -1 -20 -20 -20 -20 -20 -4 32 22 37 32 30 16 8 25 10 9 -18 -20 2 -20 2 -0
30 30 21 17 -19 15 2 13 19 18 17 16 16 22 28 -6 3 17 32 15 -13 -20 -20 -20 6 -20 -20 -20 -20 -20 -6 -20 -20 -20 16 4 21 2 1 -5 6 -17 -20 -20 -20 -20 -20
30 34 25 8 9 9 12 15 17 18 16 13 23 35 28 -14 -4 12 35 15 -20 -15 -20 3 -6 -20 -20 -20 -20 -20 -20 -20 -20 -20 -20 -10 -1 -3 -20 -20 -16 -15 -20 -20 -20 -20 -18
23 33 19 -20 11 -20 9 14 17 14 13 21 26 35 31 21 23 28 16 14 -20 -20 -20 9 -10 -20 -20 -20 -20 -20 -20 -20 -20 -20 -20 -20 -5 -20 -20 -20 -20 -20 -20 -20 -20 -20 -20
30 26 -20 -2 -13 -20 -20 21 13 12 17 20 28 24 23 29 26 31 9 -14 -20 8 10 7 -20 -20 -20 -20 -20 -20 -20 -20 -20 -20 -20 -20 -20 -20 -20 -20 -20 -20 -20 -20 -20 -20 -20
11 -20 -20 1 0 -5 18 17 -14 18 22 21 20 37 30 19 9 22 10 3 19 22 17 -1 2 -20 -20 -20 -20 -20 -20 -20 -20 -20 -20 -20 -20 -20 -20 -20 -20 -20 -20 -20 -20 -20 -20
7 -20 -10 -5 13 17 17 -11 -9 16 6 -9 7 27 25 22 -1 -15 4 8 26 16 17 -20 -0 -20 -20 -20 -20 -20 -20 -20 -20 -20 -20 -20 -20 -20 -20 -20 -20 -20 -20 -20 -20 -20 -20
-20 -20 0 -4 -18 8 4 -16 -2 6 1 -20 -0 21 17 25 10 2 -16 29 19 25 -7 -20 11 -20 -20 -20 -20 -20 -20 -20 -20 -20 -20 -20 -20 -20 -20 -20 -20 -20 -20 -20 -20 -20 -20
-20 -20 -20 9 11 0 8 1 -0 1 -20 -20 -1 8 7 7 -2 -15 26 23 19 -20 4 10 15 -20 -20 -20 -20 -20 -20 -20 -20 -20 -20 -20 -20 -20 -20 -20 -20 -20 -20 -20 -20 -20 -20
-20 -20 -20 9 0 3 -11 -20 -20 -2 -12 -18 5 1 9 14 6 18 -2 -20 -20 -14 -18 -20 -12 2 -20 -20 -20 -20 -20 -20 -20 -20 -20 -20 -20 -20 -20 -20 -20 -20 -20 -20 -20 -20 -20
-20 -15 9 -18 -13 -17 -11 18 9 2 12 -8 14 6 9 -6 6 -9 -20 -20 -20 13 -19 -20 -20 10 -20 -20 -20 -20 -20 -20 -20 -20 -20 -20 -20 -20 -20 -20 -20 -20 -20 -20 -20 -20 -20
-20 -2 -6 -20 -7 6 12 5 4 15 17 15 15 9 16 1 -15 -18 -20 -20 -20 -20 -20 -20 -20 -20 -20 -20 -20 -20 -20 -20 -20 -20 -20 -20 -20 -20 -20 -20 -20 -20 -20 -20 -20 -20 -20
-20 2 -9 5 -20 10 8 6 -0 6 -19 -20 -20 0 -13 -20 -20 -20 -20 -20 -1 -8 -18 -20 -12 -12 -20 -20 -20 -20 -20 -20 -20 -19 -20 -20 -20 -20 -20 -20 -20 -20 -20 -20 -20 -20 -20
-20 4 3 -7 -12 -8 -20 -15 3 -20 -10 -20 -10 -11 -18 -20 -20 -20 -20 -20 -15 23 -20 -20 -17 -20 -18 -20 -20 -20 -20 -20 -20 -20 -7 -14 -3 -20 -20 -20 -20 -20 -20 -20 -20 -20 -20
-20 -13 -1 -20 4 -20 -20 -18 -20 -20 -20 -19 -18 -20 -20 -20 -20 -20 -20 -20 -20 -20 -20 -7 -15 -20 -20 -0 -20 -20 -20 -20 -20 -20 -20 -20 -20 -20 -20 -20 -20 -20 -20 -20 -20 -20 -20
-20 -17 -20 -20 -20 -20 -20 -20 -20 -20 -18 -19 -20 -20 -20 -20 -20 -20 -20 -20 -20 -20 -20 -20 -17 -20 -20 -20 -20 -20 -20 -20 -20 -20 -20 -20 -20 -20 -20 -20 -20 -20 -20 -20 -20 -20 -20

GFSGBSN_prec_radar_093.txt.gz
Reflectivity
11 -17 11 -4 9 13 10 13 7 -20 -20 11 0 13 -18 -20 14 12 -15 31 25 -11 -20 -20 -20 -11 -19 -20 -20 -20 -20 -20 -20 -20 -20 -9 -20 -18 -6 -20 -20 1 -19 -20 -20 -20 -20
5 -0 3 11 -14 11 -20 -20 10 0 -20 13 9 12 3 5 -10 11 7 28 30 16 -3 -20 -19 7 3 -20 -20 -20 -20 -20 -20 -20 -20 -20 -18 -20 -20 -20 7 -19 12 6 -15 -20 -20
13 -9 4 -14 12 5 4 9 7 -18 -19 10 6 -2 6 1 7 -12 -5 17 18 11 26 5 -20 -3 7 -20 -20 -20 -20 -20 -20 -20 -3 -20 -20 -20 -20 9 -20 11 12 -6 5 -19 -20
6 14 10 4 6 -20 -20 -20 -20 -19 -20 8 5 -20 -20 -5 -7 -10 -20 -5 13 6 1 3 -20 -8 -1 -20 -20 -20 -20 -20 -20 -20 -20 -20 -20 0 8 -14 -9 6 6 11 -20 9 -20
14 15 -12 1 -20 -20 13 10 9 -19 -20 -18 -15 -20 -20 -20 -4 -20 11 9 16 18 21 12 6 2 -10 -20 -20 -20 -20 -20 -20 -16 10 -10 8 -12 -1 8 12 8 5 11 0 -10 2
-12 -20 -2 -12 -20 -4 7 10 2 16 -11 -20 -20 -20 -20 -20 -2 26 24 18 28 11 9 11 9 -3 -20 -20 -20 -20 -20 -20 -3 -20 -16 4 9 16 13 25 4 22 10 -1 -12 14 13
-13 -20 7 -11 1 11 6 7 -20 -12 -20 12 -20 -20 -20 -5 8 30 29 40 4 27 28 -5 -20 -20 -20 -20 -20 -20 -20 -20 -20 -20 -20 -20 20 16 11 6 -3 -4 19 -4 -20 -20 23
-20 0 -1 2 13 -1 1 -12 -20 -14 18 -20 12 -20 -20 -20 4 3 29 23 7 -19 -19 -20 -20 -20 -20 -20 -20 -20 -20 8 -18 0 -11 13 8 6 7 -0 2 4 1 -4 31 19 22
-12 6 -20 -20 -20 5 -4 9 14 16 -7 -2 19 -0 -20 -20 -20 -3 15 31 37 15 -10 -20 -20 -20 -20 -20 -20 -20 -20 -20 -8 -18 -0 11 -4 9 -16 5 16 -10 -19 24 23 19 21
16 19 22 21 20 -1 -5 6 18 19 -18 5 -8 17 -13 -20 -20 -20 -0 15 34 15 11 -20 -20 -20 -20 -20 -12 -20 -20 -16 -8 -20 1 11 -20 -4 3 9 6 10 1 27 14 19 23
25 30 34 33 31 25 0 15 16 18 16 18 21 -20 7 -20 -6 -2 6 -19 22 -20 9 -19 -7 -20 -20 3 -20 -20 -20 4 -12 -1 13 21 12 7 9 15 -19 13 -14 35 -17 9 40
31 35 36 34 32 19 11 13 -18 18 20 23 -8 -13 0 -16 -1 -20 10 21 3 15 11 5 5 8 7 6 -16 2 -8 1 -6 13 -2 -2 23 21 -20 -20 -20 -20 19 -9 7 5 19
21 37 44 38 31 16 18 -4 16 19 21 20 -20 14 5 -8 -2 23 22 28 22 17 -16 2 2 6 5 8 6 5 9 14 13 11 -1 20 33 37 32 8 -14 -0 15 13 17 8 1
33 31 33 32 20 19 18 18 16 18 21 17 18 23 24 -3 18 9 28 33 10 11 -2 -20 -4 -1 -1 1 -1 3 -16 33 19 20 7 22 11 30 6 -15 18 35 13 13 19 16 -7
31 33 29 24 21 7 -2 5 13 18 17 18 22 31 19 -14 -9 11 22 12 16 -5 -19 -1 1 3 -18 -20 -13 14 17 28 15 2 24 20 -0 6 17 -20 -11 -20 1 -20 -20 -20 -17
23 24 15 0 9 -20 9 12 20 16 21 26 35 27 27 -2 -8 17 31 32 -1 -2 -10 -20 -8 -20 -20 -20 -10 -4 19 -20 1 -2 -15 -1 14 -18 -18 -16 -20 -20 -20 -20 -20 10 -13
18 12 -17 -20 -20 3 7 16 18 17 20 15 9 18 18 -17 9 10 6 30 15 13 9 -14 -20 -20 -20 -20 -11 -4 -19 -20 -20 -20 -18 -20 11 -20 -19 -16 -20 -20 -20 -20 -20 -20 -20
1 -20 -20 -19 -12 -19 12 -6 -4 16 -0 -20 5 26 14 12 4 8 21 8 20 10 -17 -9 -20 -20 -20 -20 -20 -19 1 -19 -20 -20 -20 -13 -19 -1 -19 -20 -20 -20 -20 -20 -20 -20 -20
-19 -20 -20 -20 -9 5 -8 -18 -20 7 13 13 19 19 9 12 15 10 7 -11 9 11 14 11 1 -20 -20 -20 -20 -20 -20 -20 -20 -20 -20 -20 -20 -14 -16 -19 -20 -20 -20 -20 -20 -20 -20
-20 -20 -20 -20 -5 -6 -12 -20 -10 -9 -12 -20 -8 25 14 -20 -12 -14 -18 -8 22 -1 -14 -20 -4 -20 -20 -20 -20 -20 -20 -20 -20 -20 -20 -20 -20 -20 -19 -20 -20 -20 -20 -20 -20 -20 -20
-20 -20 -20 -5 -6 -13 9 -15 -19 -20 -20 -9 -13 -14 -8 7 -7 -20 -20 2 -15 9 -15 -19 -16 -19 -20 -20 -20 -20 -20 -20 -20 -20 -20 -20 -20 -20 -20 -20 -20 -20 -20 -20 -20 -20 -20
-20 -20 -20 8 -20 3 1 -20 1 -20 -20 -10 -9 5 6 -14 -11 -7 2 0 3 -9 14 9 9 -20 -20 -20 -20 -20 -20 -20 -20 -20 -20 -20 -20 -20 -20 -20 -20 -20 -20 -20 -20 -20 -20
-20 -20 -16 -11 -20 -20 -7 13 -20 -20 -20 -4 -14 -14 5 9 -15 3 -20 5 -7 -20 -20 -20 -12 -4 -18 -20 -20 -20 -20 -20 -20 -20 -20 -20 -20 -20 -20 -20 -20 -20 -20 -20 -20 -20 -20
-20 -20 -16 -20 -20 -17 6 8 -6 8 -20 -19 -10 2 4 -15 -19 -12 -18 -18 -13 5 11 -20 -20 7 -20 -20 -20 -20 -20 -20 -20 -20 -20 -20 -20 -20 -20 -20 -20 -20 -20 -20 -20 -20 -20
-20 -20 -19 -20 -20 -18 6 -1 -20 -13 13 -14 -20 1 -2 4 -1 -13 -16 -20 -20 -9 -20 -20 -20 -20 -20 -20 -15 -20 -20 -20 -20 -20 -20 -20 -20 -20 -20 -20 -20 -20 -20 -20 -20 -20 -20
-20 -20 -20 -20 -20 -7 10 9 -20 -3 -20 5 -19 -20 -20 -1 -20 -20 -20 -20 -10 -6 -12 -20 -20 -20 -20 -20 -20 -20 -20 -20 -20 -20 -20 -20 -20 -20 -20 -20 -20 -20 -20 -20 -20 -20 -20
-20 -20 -8 -14 -20 -9 -15 9 -10 -20 -20 -20 -20 -20 -20 -20 -20 -20 -19 1 -20 -19 -4 -13 -20 -20 -20 3 -20 -20 -20 -20 -20 -20 -20 -20 -20 -20 -20 -20 -20 -20 -20 -20 -20 -20 -20
-20 -20 -20 -20 -20 -12 15 -20 -20 -20 -20 -20 -20 -20 -20 -20 -20 -20 -20 -20 -20 -20 0 -20 -0 -13 8 -8 -12 -20 -20 -20 -20 -20 -20 -20 -20 -20 -20 -20 -20 -20 -20 -20 -20 -20 -20
-20 -20 -20 -20 -20 -20 11 -20 -20 -20 -20 -20 -20 -20 -20 -20 -20 -20 -20 -20 -20 -20 -20 -20 -16 -20 -18 10 -20 -20 -20 -20 -20 -20 -20 -20 -20 -20 -20 -20 -20 -20 -20 -20 -20 -20 -20

GFSGBSN_prec_radar_096.txt.gz
Reflectivity
10 7 12 4 -11 11 -3 11 -2 -20 -4 -19 6 6 -2 -19 6 3 -1 -3 2 32 35 -16 -15 -20 -20 -20 -20 -20 -20 -20 -20 -20 -20 -20 -20 -20 -20 -20 -20 -20 -20 -20 -20 -20 -20
9 14 15 14 3 -11 -18 9 -19 -20 -20 -20 -3 6 8 -2 -3 -7 -20 8 6 24 28 18 13 -20 -19 -20 -20 -20 -20 -20 -20 -20 -20 -20 -20 -20 -20 -20 -20 -20 -20 -20 -20 -20 -20
-5 9 12 13 12 12 5 11 11 9 -18 -12 -20 -20 -7 0 -17 -19 -7 -20 10 8 26 33 0 -20 3 -20 -20 -20 -20 -20 -20 -20 -20 -20 -9 -20 -20 -20 -20 -20 -20 -20 -20 -20 -20
14 13 15 13 12 3 13 2 -19 -9 -11 -20 -20 -20 -20 -20 -20 -20 -20 11 -20 27 31 22 8 2 -18 -20 -20 -20 -20 -20 -20 -20 -20 -2 8 -16 -20 -20 -20 -20 -12 -6 -20 -20 -20
7 13 -20 -18 12 -20 -8 12 10 -3 -20 -7 -20 -20 0 -20 -20 -20 1 -2 20 23 25 12 -5 -14 -17 -20 -20 -20 -20 -20 -20 -16 -17 18 12 8 -20 -6 3 -4 -17 -20 -20 -20 -20
7 2 -20 -20 -20 10 15 15 12 -5 -17 -20 -20 -20 -20 7 -20 -10 14 35 21 7 8 25 3 17 -20 -20 -20 -20 -20 -20 -20 -2 4 -2 6 -4 -2 6 -9 -5 25 5 -4 -14 -20
16 20 18 21 23 19 5 2 12 18 13 17 -20 -20 -20 -0 -20 -20 14 25 33 6 29 20 -20 -20 -20 -20 -20 -20 -20 -20 -15 -20 -13 -7 2 -1 -20 -20 -20 -20 -6 -2 -20 -11 6
23 26 27 31 34 37 32 6 -7 16 18 -17 17 -20 -20 -20 -20 -20 5 22 39 40 13 1 28 4 -20 -20 -18 -16 -20 -19 0 -2 -20 5 -2 -20 -19 16 9 9 12 -17 4 -20 -6
19 24 36 34 44 36 37 23 21 15 11 -11 -11 -20 -3 -20 -20 1 14 34 37 31 -17 -18 3 -7 -19 -20 -20 -20 -20 -10 12 -9 -5 4 -20 -11 -5 -9 0 1 -4 -17 17 11 14
24 28 35 36 34 38 34 28 27 20 16 -19 -20 -20 22 -20 -20 -20 -19 24 21 28 25 -7 3 -19 -20 -20 -20 -19 -20 -9 -10 -20 -20 -20 -20 -20 19 -19 4 8 10 -13 -6 20 28
34 31 31 28 35 31 16 23 21 18 -15 -20 21 6 15 -20 -20 5 -2 19 36 32 13 13 -10 -18 -17 -4 -17 -20 -20 9 -9 5 15 -2 10 18 9 9 20 -3 10 -20 -10 34 30
23 27 26 15 8 8 18 18 4 3 20 23 20 4 14 -20 -5 -1 15 16 21 12 13 27 -2 -4 -4 -19 5 -9 4 -20 -20 1 -17 -20 -4 -20 -20 -20 -20 -20 -9 -8 5 34 18
27 5 -20 -20 -20 20 8 18 18 21 20 -8 -14 7 15 -5 -20 7 -4 15 12 -6 23 3 -10 8 -20 -18 3 -5 -8 -2 6 17 3 13 34 -0 -9 -1 -16 -10 25 20 7 6 11
29 -13 -20 6 10 2 -20 20 18 2 19 12 -7 10 6 0 7 -6 -20 24 10 26 20 -19 -1 -20 18 8 -13 -13 12 24 20 -12 -16 22 12 16 22 15 16 14 17 18 23 19 10
12 3 -20 -7 6 12 15 7 5 12 29 29 24 19 14 15 -1 8 -1 17 24 16 18 5 -7 -18 13 3 -20 -2 10 30 6 -20 8 32 13 -2 -20 -20 -4 1 13 3 9 18 6
6 -20 -20 -20 -20 -7 -2 7 8 22 22 -20 -7 11 1 -3 -3 3 8 25 15 23 13 -2 6 -18 -19 -10 19 27 30 -1 28 -19 -20 4 16 -6 -9 0 -9 -20 6 2 -13 12 12
-9 -20 -20 -20 -13 -20 -20 6 6 15 -10 -20 7 8 6 -20 -20 -13 14 28 26 -0 2 -20 -20 -15 -6 4 8 3 -20 -20 -20 -20 -20 -5 26 14 -0 -6 -20 -20 -20 -20 -20 -20 1
-20 -20 -20 -20 -7 -20 -20 -0 1 9 -17 -20 -20 -5 -20 10 -18 -14 15 14 11 -20 -20 -20 -20 -20 -20 -20 -20 -14 -19 -20 -20 -20 -20 -18 11 14 -4 -20 -20 -20 -20 -20 -20 -20 -20
-20 -20 -20 -20 -20 -20 -13 -17 -20 -7 3 -13 -20 -15 -6 -20 -10 -8 2 -2 -20 -20 -20 -20 -5 -20 -20 -20 -16 -20 -20 -20 -20 -20 -20 -20 -20 -20 -20 -18 -20 -20 -20 -20 -20 -20 -20
-20 -20 -20 -9 -20 -20 -20 -19 -20 -20 -20 -20 -20 -9 -13 -20 -8 8 -7 -20 -10 -20 -20 -20 -12 -20 -20 -20 -20 -20 -20 -20 -20 -20 -20 -20 -20 -20 -20 -20 -20 -20 -20 -20 -20 -20 -20
-20 -20 -20 -16 -20 -3 -13 -8 -20 -20 -20 -20 -20 -12 -16 -12 -20 -13 -20 -20 -20 -20 -20 -20 -20 -20 -20 -20 -20 -20 -20 -20 -20 -20 -20 -20 -20 -20 -20 -20 -20 -20 -20 -20 -20 -20 -20
-20 -20 -20 -20 -20 -7 2 12 -20 -20 -20 -20 -20 -7 -20 -19 -20 -20 -20 -20 -20 -20 -20 6 -20 -20 -20 -20 -20 -20 -20 -20 -20 -20 -20 -20 -20 -20 -20 -20 -20 -20 -20 -20 -20 -20 -20
-20 -20 -20 -20 -20 -20 -20 14 -20 -20 -20 -20 1 -13 -10 -20 -20 -17 -3 -12 -19 -20 -20 -20 -20 -20 -20 -20 -20 -20 -20 -20 -20 -20 -20 -20 -20 -20 -20 -20 -20 -20 -20 -20 -20 -20 -20
-20 -20 -14 -20 -20 -20 -20 -19 14 -12 -9 -18 -20 -13 -9 -20 -18 -6 -20 -20 -17 -20 -13 -20 -20 -20 -20 -20 -20 -20 -20 -20 -20 -20 -20 -20 -20 -20 -20 -20 -20 -20 -20 -20 -20 -20 -20
-20 -20 -20 -10 -20 -20 -20 -20 -2 -0 -20 -16 -18 0 -7 -15 -20 -13 -20 -20 -20 -20 -20 -20 -20 -20 -20 -20 -20 -20 -20 -20 -20 -20 -20 -20 -20 -20 -20 -20 -20 -20 -20 -20 -20 -20 -20
-20 -20 -20 -17 -20 -20 -20 -20 11 -3 -20 -4 -20 -20 -20 -20 -20 -20 -20 -20 -20 -19 -20 -20 -20 -20 -20 -20 -20 -20 -20 -20 -20 -20 -20 -20 -20 -20 -20 -20 -20 -20 -20 -20 -20 -20 -20
-20 -20 -20 -20 -20 -20 -20 -20 -13 -6 -20 -5 -20 -20 -20 -20 -20 -20 -20 -20 -20 -16 -20 -20 -20 -20 -20 -20 -20 -20 -20 -20 -20 -20 -20 -20 -20 -20 -20 -20 -20 -20 -20 -20 -20 -20 -20
-20 -20 -20 -20 -20 0 -20 -20 -20 -20 -20 -20 -20 -20 -20 -20 -20 -20 -20 -20 -20 -20 -20 -20 -20 -20 -20 -20 -20 -20 -20 -20 -20 -20 -20 -20 -20 -20 -20 -20 -20 -20 -20 -20 -20 -20 -20
-20 -20 -20 -20 -20 4 -20 -20 -20 -20 -20 -20 -20 -20 -20 -20 -20 -20 -20 -20 -20 -20 -20 -20 -19 -20 -20 -20 -20 -20 -20 -20 -20 -20 -20 -20 -20 -20 -20 -20 -20 -20 -20 -20 -20 -20 -20

GFSGBSN_prec_radar_099.txt.gz
Reflectivity
16 15 4 -1 8 -13 8 13 -11 7 -11 5 6 9 15 18 15 6 6 8 12 9 4 36 33 14 -20 -8 -20 -20 -20 -20 -20 -20 -20 -20 -20 -20 -20 -20 -20 -20 -20 -20 -20 -20 -20
17 -20 -10 -18 1 10 1 11 14 -20 11 13 4 13 -15 9 7 -12 7 -6 5 10 -4 30 32 28 -7 -20 -20 -20 -20 -20 -20 -20 -20 -20 -20 -20 -20 -20 -20 -20 -20 -20 -20 -20 -20
1 -16 -20 -17 -20 -18 5 -20 10 1 10 -20 9 12 -20 -20 10 -20 -20 -20 -20 4 -2 17 18 36 20 18 -20 -20 -20 -20 -20 -20 -20 -20 -20 -20 -20 -20 -20 -20 -20 -20 -20 -20 -20
16 14 13 11 15 -9 -1 19 21 2 2 -14 -20 -8 -7 14 13 -20 -20 -20 -20 -1 14 -3 31 11 33 4 -20 -20 -20 -20 -20 -20 -20 -20 -19 -15 -4 -20 -20 -20 -20 -20 -20 -20 -20
23 27 29 31 31 34 33 33 23 17 7 -17 -1 -20 -15 8 6 -20 -20 13 -10 21 24 7 9 36 17 -18 -20 -20 -20 -20 -20 -17 -18 -20 -20 -20 5 7 -11 3 -20 -20 -20 -20 -20
15 16 17 12 24 36 43 39 39 23 5 13 -7 -9 -12 7 -1 -20 -20 15 35 25 15 34 26 18 -13 -20 -20 -20 -20 -20 -18 0 0 9 7 6 -10 -2 -20 -20 -20 -20 -20 -20 -18
15 23 26 29 25 29 20 39 38 26 22 20 18 9 -19 8 -1 -20 -20 26 33 23 21 22 -7 -20 -20 -20 -20 -20 -20 -20 -20 -2 -20 -15 -20 -20 -20 -20 -20 -20 -20 -20 -20 -20 -13
19 16 13 -8 4 20 28 31 32 31 20 5 -20 -14 -6 15 -20 -20 -14 23 35 36 14 11 18 12 -20 -20 -20 -20 -20 -20 -13 -3 -4 5 -20 -20 -20 -20 -20 12 11 -20 -20 -20 11
15 8 18 7 -12 -10 20 19 22 15 19 -14 -20 0 20 -13 -20 -20 -13 30 31 33 14 24 34 18 -6 -20 -20 -20 -20 -15 4 -3 -20 -19 -20 -20 -20 -18 15 -7 -6 -20 -20 -20 -20
16 15 3 -3 -2 -10 -2 18 19 3 -9 17 -10 -12 -20 -20 -20 -20 12 21 32 30 28 26 37 24 -14 -20 -20 -16 -12 11 11 -15 -15 -1 -20 -20 -20 -16 18 6 -17 11 7 21 2
25 -3 -20 6 4 18 9 7 16 17 -6 -20 -20 -20 -20 -18 -20 -20 10 11 15 14 10 19 10 -3 -20 -17 -20 -19 -20 10 2 -15 1 -9 -19 10 11 9 -9 6 12 8 15 20 20
9 1 0 -16 3 -1 19 18 20 23 4 -16 -7 -9 -20 -20 -20 6 -13 -13 -0 17 12 20 6 5 -20 1 19 -7 10 -20 -20 -20 -20 -20 -20 -3 -20 -20 -20 -20 -20 -19 4 5 15
0 -20 -20 -14 3 8 17 4 24 22 19 12 -1 -20 -20 -20 -20 5 -15 -4 10 13 24 -20 24 -17 -20 -19 18 -19 -4 1 -4 -5 2 -3 -8 1 -20 -20 -19 -20 6 12 13 18 15
-16 -20 -20 -17 12 12 10 18 16 25 20 -20 -20 -20 -20 -20 -20 -20 -2 10 13 24 0 11 -18 -20 15 -20 3 -18 25 19 -3 -9 17 8 -11 7 2 -1 -5 -16 18 23 10 17 16
-20 -20 -20 -17 8 11 21 18 18 15 -18 -20 -20 -20 -20 -11 -10 -13 -20 7 18 23 -13 -19 -9 15 4 6 1 9 25 29 0 -13 -13 29 13 -20 -20 -20 -8 13 27 24 16 33 11
-20 -20 -20 1 5 6 10 20 12 14 2 -20 -20 -20 -14 -20 -20 -20 -20 19 21 9 16 -17 -20 -20 -20 -12 26 30 23 19 -4 -20 -15 12 2 -20 -20 -14 -20 -1 11 13 -2 7 8
-20 -20 -20 2 -10 -20 10 10 1 -20 -20 -20 -20 -20 -18 -20 -20 -20 -20 -18 -15 -20 -20 -20 -20 -20 -15 -1 -7 -2 -19 -20 -20 -20 -13 23 -18 -20 -20 -20 -20 -18 5 22 -4 -15 2
-20 -20 -20 8 -20 -20 -20 7 -14 -20 -20 -20 -20 -20 -20 -20 -20 -20 -20 -20 -20 -20 -20 -20 -20 -20 -20 -20 -20 -20 -20 -20 -19 -20 -1 -19 -20 -20 -20 -20 -20 -20 -20 -1 -20 2 -20
-20 -20 -20 5 -20 -20 -20 -20 -20 -20 -13 -20 -20 -20 -20 -20 -18 -20 -20 -20 -20 -20 -20 -20 -20 -20 -20 -20 -20 -20 -20 -20 -20 -20 -12 -20 -20 -20 -20 -20 -20 -20 -20 -20 -20 -20 -20
-20 -20 -20 10 -20 -20 -20 -20 -20 -20 -20 -20 -20 -20 -20 -20 -20 -11 -20 -20 -20 -20 -20 -20 -20 -20 -20 -20 -20 -20 -20 -20 -20 -20 -20 -20 -20 -20 -20 -20 -20 -20 -20 -20 -20 -20 -20
-20 -20 -20 -14 -3 -20 -20 -20 -20 -20 -20 -20 -20 -20 -20 -20 -20 -20 -20 -20 -20 -20 -20 -20 -20 -20 -20 -20 -20 -20 -20 -20 -20 -20 -20 -20 -20 -20 -20 -20 -20 -20 -20 -20 -20 -20 -14
-20 -20 -20 -20 -12 -20 -20 -20 -20 -20 -20 -20 -20 -20 -20 -20 -20 -20 -20 -20 -20 -20 -20 -20 -20 -20 -20 -20 -20 -20 -20 -20 -20 -20 -20 -20 -20 -20 -20 -20 -20 -20 -20 -20 -20 -20 -20
-20 -20 -20 -20 -20 -20 -20 -20 -20 -20 -20 -20 -20 -20 -20 -20 -20 -20 -20 -20 -20 -16 -20 -20 -20 -20 -20 -20 -20 -20 -20 -20 -20 -20 -20 -20 -20 -20 -20 -20 -20 -20 -20 -20 -20 -20 -20
-20 -20 -20 -20 -20 -20 -20 4 -16 -20 -16 -20 -20 -20 -20 -20 -20 -20 -20 -20 -20 -20 -20 -20 -20 -20 -20 -20 -20 -20 -20 -20 -20 -20 -20 -20 -20 -20 -20 -20 -20 -20 -20 -20 -20 -20 -20
-20 -20 -20 -20 -20 -20 -0 1 -12 -17 -20 -20 -20 -20 -20 -20 -20 -20 -20 -20 -20 -20 -20 -20 -20 -20 -20 -20 -20 -20 -20 -20 -20 -20 -20 -20 -20 -20 -20 -20 -20 -20 -20 -20 -20 -20 -20
-20 -20 -20 -20 -20 -20 -0 -20 -20 -20 -20 -20 -20 -20 -20 -20 -20 -20 -20 -20 -20 -20 -20 -20 -20 -20 -20 -20 -20 -20 -20 -20 -20 -20 -20 -20 -20 -20 -20 -20 -20 -20 -20 -20 -20 -20 -20
-20 -20 -20 -20 -20 -7 -20 -7 -20 -20 -20 -20 -20 -20 -20 -20 -20 -20 -20 -20 -20 -20 -20 -20 -20 -20 -20 -20 -20 -20 -20 -20 -20 -20 -20 -20 -20 -20 -20 -20 -20 -20 -20 -20 -20 -20 -20
-20 -20 -20 -20 -20 -4 -20 -20 -20 -20 -20 -20 -20 -20 -20 -20 -20 -20 -20 -20 -20 -20 -20 -20 -20 -20 -20 -20 -20 -20 -20 -20 -20 -20 -20 -20 -20 -20 -20 -20 -20 -20 -20 -20 -20 -20 -20
-20 -20 -20 -20 -20 1 -20 -20 -20 -20 -20 -20 -20 -20 -20 -20 -20 -20 -20 -20 -20 -20 -20 -20 -20 -20 -20 -20 -20 -20 -20 -20 -20 -20 -20 -20 -20 -20 -20 -20 -20 -20 -20 -20 -20 -20 -20

GFSGBSN_prec_radar_102.txt.gz
Reflectivity
20 19 23 15 8 -18 -13 2 0 11 14 16 16 17 19 7 -3 10 -1 -5 3 6 9 -9 25 36 33 16 -10 -20 -20 -20 -20 -20 -20 -20 -20 -20 -20 -20 -20 -20 -20 -20 -20 -20 -20
23 21 20 25 30 39 38 28 32 28 20 -9 -4 -0 2 12 -6 -2 -19 -20 -20 -15 -3 17 20 38 35 27 -9 -20 -20 -20 -20 -20 -20 -20 -20 -20 -20 -20 -20 -20 -20 -20 -20 -20 -20
6 15 18 26 29 29 23 38 37 34 36 32 15 -20 -20 -20 5 -19 -20 -20 -20 -20 -20 13 27 0 2 35 1 26 -19 -20 -20 -20 -20 -20 -20 -20 -20 -20 -20 -20 -20 -20 -20 -20 -20
17 24 11 -1 9 8 18 24 40 42 39 35 26 -5 -20 -19 -3 -11 -20 -20 -20 -20 -13 24 25 -17 30 32 32 12 -20 -20 -20 -20 -20 -20 -20 -20 -17 -20 -20 -20 -20 -20 -20 -20 -20
-13 12 -5 12 4 3 0 32 24 33 35 33 29 -20 -18 -20 -1 -19 -20 -20 -19 -3 16 21 18 -5 4 29 14 -1 -20 -20 -20 -20 -20 -20 -20 -20 -7 -5 -9 -20 -12 -20 -20 -20 -20
11 1 -10 11 13 5 21 22 35 37 34 28 25 -1 -5 -20 -20 -20 -20 -20 16 28 22 14 13 9 5 10 26 -15 -20 -20 -20 -15 -5 1 -3 -17 -3 -7 -20 -20 -20 -20 -20 -20 -20
19 -3 -20 0 -2 10 11 14 18 17 17 -7 16 -20 -17 -20 -20 -20 -20 -20 21 21 36 12 17 10 17 21 -12 -19 -20 -20 -20 -20 -20 -20 -20 -20 -20 -20 -20 -20 -20 -20 -20 -20 -20
-19 -20 -20 8 15 1 0 9 17 -8 8 14 -17 -16 -20 -20 -20 -20 -20 -20 26 33 22 24 26 32 27 -12 1 -14 -20 -20 -20 -20 -20 -1 -20 -20 -20 -20 -20 -20 -20 -20 -20 -20 -14
-20 -20 -20 15 13 11 19 11 17 -5 -1 -7 -4 -9 -20 -20 -20 -20 -17 28 30 20 21 34 29 33 5 4 -13 -20 -20 -20 -20 -18 -7 -20 -20 -20 -20 -20 -19 -16 -4 -17 -20 -18 -20
-19 -20 -20 12 -5 9 18 18 11 -4 -20 -8 -20 -11 -20 -20 -20 -18 -3 12 17 19 23 34 38 33 14 -4 -20 -20 -20 -12 -1 5 10 -9 -20 -20 -20 -20 -20 6 -20 -15 6 17 -14
-20 -20 -20 10 -20 -1 9 17 18 16 24 -20 -20 -20 -20 2 4 1 -9 14 14 11 18 35 32 16 -18 -18 -20 -20 -19 10 12 4 9 -20 -19 8 -19 -20 -20 -16 1 6 2 4 22
-20 -20 -20 12 -13 -4 13 21 24 17 -8 -12 -20 -20 -20 -20 -19 -0 -15 5 25 -7 2 15 13 15 -14 -2 4 -13 10 -20 -13 -1 -20 -20 -20 -14 -20 -20 -20 -20 -20 6 11 7 7
-20 -20 -16 13 -10 -20 -9 19 18 -19 -20 -20 -20 -20 -20 -20 -14 4 10 1 -19 -11 -1 -13 13 -16 -20 16 8 -7 -20 -18 -11 0 9 -6 -7 -14 -18 -20 -20 -20 7 -12 -10 9 -1
-20 -20 -20 -7 -5 4 3 15 16 -19 -20 -20 -20 -19 -20 -20 -20 -20 -18 -17 -7 0 5 -5 -20 -20 -20 -20 -4 -18 17 18 5 7 2 -19 -8 -2 -20 -19 -20 2 23 14 2 21 11
-20 -20 -19 -13 -20 1 -3 -3 15 -17 -16 -20 -20 -20 -20 -20 -20 -20 -20 -9 4 -15 7 -20 -3 0 -8 -12 22 13 19 23 5 4 -18 25 -20 -20 -20 -20 -17 9 28 19 20 23 14
-20 -20 -14 -20 -20 -18 -3 -20 -20 -20 -20 -20 -20 -20 -20 -20 -20 -20 -20 -3 11 -1 -5 -20 -20 -20 -20 3 -5 -18 12 -20 -12 -20 23 8 -1 -20 -20 -20 -20 -14 18 16 2 -4 17
-20 -20 -20 -20 -20 -20 -20 -7 -20 -20 -20 -20 -20 -20 -20 -20 -20 -20 -20 -20 -20 -20 -20 -20 -20 -20 -20 -20 -16 -16 -20 -20 -20 -20 1 -20 -16 -20 -8 -20 -20 -2 27 13 -20 -20 5
-20 -20 -20 -20 -4 -20 -20 -20 -20 -20 -20 -20 -20 -20 -20 -20 -20 -20 -20 -20 -20 -20 -20 -20 -20 -20 -20 -20 -20 -20 -20 -20 -20 -20 -20 -20 -20 -5 -0 -20 -12 12 3 10 -20 -20 -20
-20 -20 -20 -20 -20 -8 -20 -20 -20 -20 -20 -20 -20 -20 -20 -20 -20 -20 -20 -20 -20 -20 -20 -20 -20 -20 -20 -20 -20 -20 -20 -20 -20 -20 -20 -20 -20 -20 -20 -6 -15 1 -5 1 -20 -20 -20
-20 -20 -20 -20 -20 -19 -1 -18 -20 -20 -20 -20 -20 -20 -20 -20 -20 -20 -20 -20 -20 -20 -20 -20 -20 -20 -20 -20 -20 -20 -20 -20 -20 -20 -20 -20 -20 -20 -20 -20 -20 -20 -20 -9 -10 -15 3
-20 -20 -20 -20 -20 -20 -20 -18 -10 -20 -20 -20 -20 -20 -20 -20 -20 -20 -20 -20 -20 -20 -20 -20 -20 -20 -20 -20 -20 -20 -20 -20 -20 -20 -20 -20 -20 -20 -20 -20 -20 -20 -20 -20 -20 -20 -15
-20 -20 -20 -20 -20 -20 -14 -20 -20 -20 -20 -20 -20 -20 -20 -20 -20 -20 -20 -20 -20 -20 -20 -20 -20 -20 -20 -20 -20 -20 -20 -20 -20 -20 -20 -20 -20 -20 -20 -20 -20 -20 -20 -20 -20 -20 -20
-20 -20 -20 -20 -20 -20 11 15 5 -20 -20 -20 -20 -20 -20 -20 -20 -20 -20 -20 -20 -20 -20 -20 -20 -20 -20 -20 -20 -20 -20 -20 -20 -20 -20 -20 -20 -20 -20 -20 -20 -20 -20 -20 -20 -20 -20
-20 -20 -20 -20 -20 -10 -5 -19 11 -20 -20 -20 -20 -20 -20 -20 -20 -20 -20 -20 -20 -20 -20 -20 -20 -20 -20 -20 -20 -20 -20 -20 -20 -20 -20 -20 -20 -20 -20 -20 -20 -20 -20 -20 -20 -20 -20
-20 -20 -20 -20 -20 -20 -18 -18 -17 -20 -20 -20 -20 -20 -20 -20 -20 -20 -20 -20 -20 -20 -20 -20 -20 -20 -20 -20 -20 -20 -20 -20 -20 -20 -20 -20 -20 -20 -20 -20 -20 -20 -20 -20 -20 -20 -20
-20 -20 -20 -20 -20 1 -20 -20 -20 -20 -20 -20 -20 -20 -20 -20 -20 -20 -20 -20 -20 -20 -20 -20 -20 -20 -20 -20 -20 -20 -20 -20 -20 -20 -20 -20 -20 -20 -20 -20 -20 -20 -20 -20 -20 -20 -20
-20 -20 -20 -20 -20 -20 -20 -20 -20 -20 -20 -20 -20 -20 -20 -20 -20 -20 -20 -20 -20 -20 -20 -20 -20 -20 -20 -20 -20 -20 -20 -20 -20 -20 -20 -20 -20 -20 -20 -20 -20 -20 -20 -20 -20 -20 -20
-20 -20 -20 -20 -13 -20 -20 -20 -20 -20 -20 -20 -20 -20 -20 -20 -20 -20 -20 -20 -20 -20 -20 -20 -20 -20 -20 -20 -20 -20 -20 -20 -20 -20 -20 -20 -20 -20 -20 -20 -20 -20 -20 -20 -20 -20 -20
-20 -20 -20 -20 -20 -7 -20 -20 -20 -20 -20 -20 -20 -20 -20 -20 -20 -20 -20 -20 -20 -20 -20 -20 -20 -20 -20 -20 -20 -20 -20 -20 -20 -20 -20 -20 -20 -20 -20 -20 -20 -20 -20 -20 -20 -20 -20

GFSGBSN_prec_radar_108.txt.gz
Reflectivity
-9 -20 -20 3 -6 16 11 -3 19 19 15 -20 31 43 41 21 -1 12 -14 2 4 1 10 22 17 13 8 27 37 25 9 19 0 -20 -20 -20 -20 -20 -20 -20 -20 -20 -20 -20 -20 -20 -20
-20 -20 9 10 13 16 15 -16 5 23 38 45 41 39 38 -17 -18 0 -11 -20 15 7 -3 -10 -1 10 24 32 28 25 19 17 -20 -20 -20 -20 -20 -20 -20 -20 -20 -20 -20 -20 -20 -20 -20
-20 -11 13 12 15 -20 20 10 10 13 22 31 38 31 29 -16 -20 -20 9 -20 -5 9 -3 -19 29 5 16 25 29 32 33 10 -20 -20 -20 -20 -20 -20 -20 -20 -20 -20 -20 -20 -20 -20 -20
-20 -13 15 11 17 3 -19 9 -14 -20 -8 15 9 -6 -10 -20 -20 -20 -5 -20 -20 -20 -6 0 23 30 35 22 30 28 32 12 -20 -20 -20 -20 -20 -20 -20 -20 -20 -20 -20 -20 -20 -20 -20
-20 17 17 13 10 5 -20 -6 15 6 -11 2 9 -16 -20 -20 -20 -20 -20 9 14 2 -20 14 18 22 35 24 21 19 30 6 -20 -20 -20 -20 -20 -20 -20 -20 -20 -20 -20 -20 -20 -20 -20
-20 15 19 5 12 17 -20 -20 12 9 5 -4 5 2 -20 -20 -20 -20 -20 -15 -16 -20 8 -7 -9 -12 -10 3 22 4 -9 -20 -20 -20 -20 -20 -20 -20 -20 -20 -20 -20 -20 -20 -20 -20 -20
-20 14 17 17 13 18 6 -20 -2 3 -11 -20 -20 -5 2 -20 -20 -20 -20 -20 -18 11 15 16 20 14 -7 8 13 4 -12 -20 -20 -20 -20 -20 -20 -20 -20 -20 -20 -20 -20 -20 -20 -20 -20
-20 13 15 17 18 17 17 3 -20 -20 1 -20 -20 -20 -11 -20 -20 -20 -20 -17 -15 2 19 -8 -20 -20 -20 -16 -2 -18 -20 -20 -20 -20 -20 -20 -20 -20 -20 -20 -20 -20 -20 -20 -20 -20 -20
-20 -9 9 14 17 18 19 -12 -20 -20 -20 -20 -20 -20 -20 -20 -20 -20 -20 -20 -14 -5 8 6 14 16 2 -5 7 -14 -20 -20 -20 -20 -20 -20 -20 -20 -20 -20 -20 -20 -20 -20 -20 -20 -20
-20 -20 -0 13 17 17 9 -20 -20 -20 -20 -20 -20 -20 -20 -20 -20 -20 -20 -20 2 -20 -19 17 10 22 22 7 -18 -20 -20 -20 -20 -20 -20 -20 -20 -20 -20 -20 -20 -20 -20 -20 -20 -8 -20
-20 -20 -6 8 12 18 15 -20 -20 -20 -20 -20 -20 -20 -20 -20 -20 -9 -20 -20 -20 -20 -19 27 33 -1 -15 13 -4 -12 -20 -13 12 5 -2 -20 -20 -19 -14 -20 -20 -20 -20 -20 -19 10 8
-20 -20 -20 5 8 16 15 8 -20 -20 -20 -20 -20 -20 -20 -20 -20 -20 -20 -20 -20 -20 -7 3 5 21 30 12 5 -11 -20 -20 -20 -15 -20 -20 -20 -20 -20 -20 -20 -20 -20 -20 -20 -20 -7
-20 -20 -20 -2 -2 6 10 11 6 -20 -20 -20 -20 -20 -20 -20 -20 -20 -20 -20 -20 -20 10 19 25 17 1 14 -20 4 2 -18 -18 -20 -20 -20 -20 -20 -20 -17 -20 -20 -2 -7 -20 -5 -20
-20 -20 -20 -11 0 -3 5 10 13 14 -11 -20 -20 -20 -20 -20 -20 -20 -20 -20 -19 5 7 -19 -20 -5 1 -20 -20 -19 -20 -6 -20 -11 -2 -20 -20 -20 -20 -20 -18 21 21 -9 -5 -20 -19
-20 -20 -20 -20 -2 17 -1 -11 14 16 10 -20 -20 -20 -20 -20 -20 -20 -20 -20 -16 -20 -20 -20 -20 -20 -4 26 5 -2 8 10 -1 -20 8 13 -20 -20 -20 -20 -20 13 14 2 11 -17 -10
-16 -20 -20 -20 -20 1 -2 -18 8 -4 6 -20 -20 -20 -20 -20 -20 -20 -20 -12 -20 -20 -20 -20 -20 -20 -20 -20 -15 -2 25 -7 23 16 8 -3 -20 -20 -20 -20 -20 -18 -7 13 7 -11 -5
10 -20 -20 -20 -20 -20 7 -20 -19 -17 -16 -20 -20 -20 -20 -20 -20 -20 -20 -20 -20 -20 -20 -20 -20 -20 -20 -20 -20 -20 -20 -20 -20 -20 -20 -20 -15 -20 -20 -20 -10 1 13 25 25 22 8
-17 -20 -20 -20 -20 -20 -20 14 -2 -20 -20 -20 -20 -20 -20 -20 -20 -20 -20 -20 -20 -20 -20 -20 -20 -20 -20 -20 -20 -20 -20 -20 -20 -20 -20 -20 -20 -20 -20 -19 -20 -20 -20 -2 17 8 -12
-19 -20 -20 -20 -20 -20 -20 1 -2 2 -11 -20 -20 -20 -20 -20 -20 -20 -20 -20 -20 -20 -20 -20 -20 -20 -20 -20 -20 -20 -20 -20 -20 -20 -20 -20 -18 -16 -20 -20 -1 -20 -20 -20 22 -5 -20
10 -20 -20 -20 -20 -20 -10 -2 9 3 -17 -20 -20 -20 -20 -20 -20 -20 -20 -20 -20 -20 -20 -20 -20 -20 -20 -20 -20 -20 -20 -20 -20 -20 -20 -20 -7 -20 -20 -20 -20 -7 9 -1 10 -19 -20
-18 -20 -20 -20 -20 -20 -11 -20 10 -2 -20 -20 -20 -20 -20 -20 -20 -20 -20 -20 -20 -20 -20 -20 -20 -20 -20 -20 -20 -20 -20 -20 -20 -20 -20 -20 -20 -20 -20 -20 -10 -1 -20 -0 2 -20 -19
-20 -20 -20 -20 -20 3 -2 7 -20 -20 -20 -20 -20 -20 -20 -20 -20 -20 -20 -20 -20 -20 -20 -20 -20 -20 -20 -20 -20 -20 -20 -20 -20 -20 -20 -20 -20 -20 -20 -20 -5 -19 -20 -20 -20 -20 -20
4 -20 -20 -20 -20 3 -15 0 -20 -20 -20 -20 -20 -20 -20 -20 -20 -20 -20 -20 -20 -20 -20 -20 -20 -20 -20 -20 -20 -20 -20 -20 -20 -20 -20 -20 -20 -20 -20 -20 -20 -20 -20 -20 -20 -20 -20
5 5 -20 -20 -20 -13 -20 -20 -20 -20 -20 -20 -20 -20 -20 -20 -20 -20 -20 -20 -20 -20 -20 -20 -20 -20 -20 -20 -20 -20 -20 -20 -20 -20 -20 -20 -20 -20 -20 -20 -20 -20 -20 -20 -20 -20 -20
7 1 -20 -20 -20 -20 -20 -20 -20 -20 -20 -20 -20 -20 -20 -20 -20 -20 -20 -20 -20 -20 -20 -20 -20 -20 -20 -20 -20 -20 -20 -20 -20 -20 -20 -20 -20 -20 -20 -20 -20 -20 -20 -20 -20 -20 -20
6 8 -16 -17 -20 -20 -20 -20 -20 -20 -20 -20 -20 -20 -20 -20 -20 -20 -20 -20 -20 -20 -20 -20 -20 -20 -20 -20 -20 -20 -20 -20 -20 -20 -20 -20 -20 -20 -20 -20 -20 -20 -20 -20 -20 -20 -20
1 -7 3 -18 -20 -20 -17 -20 -20 -20 -20 -20 -20 -20 -20 -20 -20 -20 -20 -20 -20 -20 -20 -20 -20 -20 -20 -20 -20 -20 -20 -20 -20 -20 -20 -20 -20 -20 -20 -20 -20 -20 -20 -20 -20 -20 -20
-14 -10 11 3 -12 4 -17 -20 -20 -20 -20 -20 -20 -20 -20 -20 -20 -20 -20 -20 -20 -20 -20 -20 -20 -20 -20 -20 -20 -20 -20 -20 -20 -20 -20 -20 -20 -20 -20 -20 -20 -20 -20 -20 -20 -20 -20
-20 3 3 -19 0 -2 -16 -17 -20 -20 -20 -20 -20 -20 -20 -20 -20 -20 -20 -20 -20 -20 -20 -20 -20 -20 -20 -20 -20 -20 -20 -20 -20 -20 -20 -20 -20 -20 -20 -20 -20 -20 -20 -20 -20 -20 -20

GFSGBSN_prec_radar_114.txt.gz
Reflectivity
-9 -20 -6 1 2 17 20 -6 -19 -20 1 7 -10 22 13 -6 -3 -20 -20 -20 -20 -20 -20 -20 -12 8 14 16 29 6 11 31 -20 -2 -13 -20 -20 -20 -20 -20 -20 -20 -20 -20 -20 -20 -20
-20 -17 0 -20 18 14 10 -5 -19 -4 -20 6 4 -20 -10 17 5 -20 -20 -20 -20 -20 -20 -20 2 -0 27 33 17 -6 -8 20 -6 -2 1 -9 -20 -20 -20 -20 -20 -20 -20 -20 -20 -20 -20
-18 -15 -20 12 12 10 13 4 -18 -17 19 5 -1 -20 -7 8 -1 -20 -20 -20 -20 -20 -20 -20 -17 10 15 22 9 5 -1 12 25 -9 -17 -1 -20 -20 -20 -20 -20 -20 -20 -20 -20 -20 -20
8 8 -20 10 15 -1 8 2 14 2 -6 19 8 -20 -20 18 -9 -20 5 11 -20 -10 -17 6 18 3 15 25 29 2 -0 18 -7 -20 -20 -20 -20 -20 -20 -20 -20 -20 -20 -20 -20 -20 -20
17 15 -15 8 12 -6 16 11 -3 8 -17 1 15 -8 -20 26 -11 -2 4 -4 -13 26 32 24 18 13 31 35 25 27 30 10 -20 -20 -20 -20 -20 -20 -20 -20 -20 -20 -20 -20 -20 -20 -20
16 13 5 10 12 2 11 17 8 11 -15 -4 12 -20 -20 17 -20 -20 -20 16 23 18 30 36 33 32 30 31 18 18 11 -5 -20 -20 -20 -20 -20 -20 -20 -20 -20 -20 -20 -20 -20 -20 -20
16 3 13 13 8 10 17 -7 11 8 -2 -7 -5 -20 -20 -20 14 -20 -20 -20 -2 5 16 14 32 12 36 21 27 22 -20 -18 -20 -20 -20 -20 -20 -20 -20 -20 -20 -20 -20 -20 -20 -20 -20
-20 16 9 16 6 7 8 9 -2 1 3 12 -20 -20 -20 -20 -20 -20 -20 -20 -20 -2 9 2 8 11 9 23 -4 -11 -20 -20 -20 -20 -20 -20 -20 -20 -20 -20 -20 -20 -20 -20 -20 -20 -20
-20 -1 17 14 13 7 -4 6 5 -20 -20 -7 -20 -20 -20 -20 -20 -20 -20 0 -4 -20 -14 10 -4 14 -7 -3 -20 -20 -20 -20 -20 -20 -20 -20 -20 -20 -20 -20 -20 -20 -20 -20 -20 -20 -20
-19 -19 14 15 -6 5 5 -14 0 -10 -20 -20 -20 -20 -20 -20 -20 -20 -20 -20 -8 -20 -20 -16 -20 -10 -16 -20 -18 -20 -20 -20 -20 -20 -20 -20 -20 -20 -20 -20 -20 -20 -20 -20 -20 -20 -17
15 -20 -19 13 7 3 8 -1 -20 -20 -20 -20 -20 -20 -20 -20 -20 -20 -20 -20 -20 -20 -20 -20 -2 -20 -7 4 -20 -20 -20 -20 -10 -5 -20 -20 -20 -20 -20 -20 -20 -20 -20 -20 -20 5 -7
14 -5 -20 -8 4 -2 1 9 -0 -20 -20 -20 -20 -20 -20 -20 -20 -20 -20 -20 -20 5 -4 -6 2 -7 7 -6 -16 -20 -20 -20 -20 -20 -20 -20 -20 -20 -20 -20 -20 -20 -20 -20 -13 1 -0
10 13 -20 -20 -20 6 6 5 4 -12 -20 -20 -20 -20 -20 -20 -20 -20 -20 -20 -20 -15 -19 -20 -16 -20 -9 -16 -20 -15 -20 -20 -12 -2 -20 -20 -20 -20 -20 -20 -20 -15 -18 3 1 -0 -20
7 12 5 -20 -20 -15 9 10 15 -1 -20 -20 -20 -20 -20 -20 -20 -20 -20 -20 -20 -1 -15 -20 -20 -20 -20 8 -20 -15 -20 -20 -20 -20 3 -20 -20 -20 -20 -20 -1 -5 1 11 7 2 2
0 12 13 -20 -20 -16 16 7 10 14 -20 -20 -20 -20 -20 -20 -20 -20 -20 -20 -18 -20 -20 -20 -20 -7 -20 0 -19 -20 -20 -2 -6 -20 -20 -14 -20 -20 -20 -20 -20 3 6 -6 13 -6 9
10 -14 13 -17 -20 -20 15 13 11 13 -20 -20 -20 -20 -20 -20 -20 -20 -20 -20 -14 -20 -20 -20 -17 -20 -20 -20 -12 -20 -10 -20 -20 -17 -20 -8 -20 -20 -20 -20 -20 -19 3 16 15 2 7
7 -1 -12 6 -20 -20 13 10 4 7 -20 -20 -20 -20 -20 -20 -20 -20 -20 -20 -20 -20 -20 -20 -20 -20 -20 -20 -20 -11 -20 -20 -20 -14 -20 -13 -7 -20 -20 -20 -19 4 12 12 0 -1 9
-4 6 -20 -19 -20 -13 -1 3 -4 -2 -20 -20 -20 1 -20 -20 -20 -20 -20 -20 -20 -20 -20 -20 -20 -20 -20 -20 -20 -20 -20 -20 -20 -20 -20 -20 4 -5 -20 -20 -20 -20 8 11 2 6 0
-20 7 -9 -20 -20 -20 -20 4 -20 -20 -20 -20 -20 -20 -20 -20 -20 -20 -20 -20 -20 -20 -20 -20 -20 -20 -20 -20 -20 -20 -20 -20 -20 -20 -20 -20 -20 -20 -20 -20 -20 -20 -4 -6 -0 -20 -20
-19 -13 -20 -20 -20 -20 -20 -20 -20 -20 -20 -20 -20 -20 -20 -20 -20 -20 -20 -20 -20 -20 -20 -20 -20 -20 -20 -20 -20 -20 -20 -20 -20 -20 -20 -20 -20 -20 -20 -20 -20 -20 -20 -20 -20 -2 -20
-19 -20 -20 -20 -20 -20 -19 -20 -20 -20 -20 -20 -20 -20 -20 -20 -20 -20 -20 -20 -20 -20 -20 -20 -20 -20 -20 -20 -20 -20 -20 -20 -20 -20 -20 -20 -20 -20 -20 -20 -20 -20 -20 -20 -20 -20 -20
-10 -20 -15 -2 -20 -20 -20 -20 -20 -20 -20 -20 -20 -20 -20 -20 -20 -20 -20 -20 -20 -20 -20 -20 -20 -20 -20 -20 -20 -20 -20 -20 -20 -20 -20 -20 -20 -20 -20 -20 -20 -20 -20 -20 -20 -20 -20
-17 0 -20 -20 -20 -20 -20 -20 -20 -20 -20 -20 -20 -20 -20 -20 -20 -20 -20 -20 -20 -20 -20 -20 -20 -20 -20 -20 -20 -20 -20 -20 -20 -20 -20 -20 -20 -20 -20 -20 -20 -20 -20 -20 -20 -20 -20
11 8 -19 -20 -20 -20 -20 -20 -14 -20 -20 -20 -20 -20 -20 -20 -20 -20 -20 -20 -20 -20 -20 -20 -20 -20 -20 -20 -20 -20 -20 -20 -20 -20 -20 -20 -20 -20 -20 -20 -20 -20 -20 -20 -20 -20 -20
12 10 -2 -20 -20 -20 -20 -20 -20 -20 -20 -1 -20 -20 -20 -20 -20 -20 -20 -20 -20 -20 -20 -20 -20 -20 -20 -20 -20 -20 -20 -20 -20 -20 -20 -20 -20 -20 -20 -20 -20 -20 -20 -20 -20 -20 -20
-19 -3 -20 -20 -20 -20 -20 -20 -20 -20 -20 3 -20 -20 -20 -20 -20 -20 -20 -20 -20 -20 -20 -20 -20 -20 -20 -20 -20 -20 -20 -20 -20 -20 -20 -20 -20 -20 -20 -20 -20 -20 -20 -20 -20 -20 -20
11 8 -17 -20 -20 -20 -20 -20 -20 -20 -20 -14 -20 -20 -20 -20 -20 -20 -20 -20 -20 -20 -20 -20 -20 -20 -20 -20 -20 -20 -20 -20 -20 -20 -20 -20 -20 -20 -20 -20 -20 -20 -20 -20 -20 -20 -20
6 -1 11 -20 -20 -20 -20 -20 -20 -20 -20 -20 -20 -20 -20 -20 -20 -20 -20 -20 -20 -20 -20 -20 -20 -20 -20 -20 -20 -20 -20 -20 -20 -20 -20 -20 -20 -20 -20 -20 -20 -20 -20 -20 -20 -20 -20
5 -3 13 11 -7 -20 -20 -20 -20 -20 -20 -20 -20 -20 -20 -20 -20 -20 -20 -20 -20 -20 -20 -20 -20 -20 -20 -20 -20 -20 -20 -20 -20 -20 -20 -20 -20 -20 -20 -20 -20 -20 -20 -20 -20 -20 -20

GFSGBSN_prec_radar_117.txt.gz
Reflectivity
8 -13 12 14 14 8 2 9 17 -20 -20 -16 -4 18 7 13 8 -18 -17 -20 -20 -20 -20 9 -20 25 19 28 29 8 26 14 -20 -20 -20 -20 -20 -20 -20 -20 -20 -20 -20 -20 -20 -20 -20
7 4 12 16 -20 11 8 -3 17 -1 -20 23 -19 -8 -2 -20 -20 -20 -20 -20 -20 -20 -20 -11 5 8 29 30 36 16 29 27 -20 -20 -20 -20 -20 -20 -20 -20 -20 -20 -20 -20 -20 -20 -20
7 10 11 15 4 13 5 -3 17 -20 23 -6 4 0 -20 9 -16 -20 -20 -20 -20 -20 -20 -10 5 20 30 31 19 13 24 36 -8 -20 -20 -20 -20 -20 -20 -20 -20 -20 -20 -20 -20 -20 -20
13 8 9 14 15 11 0 3 9 -20 -16 -17 4 -2 -20 -16 -16 -20 -11 -2 -19 -20 -11 8 21 35 36 29 21 14 29 9 7 -20 -20 -15 0 -4 -20 -20 -20 -20 -20 -20 -20 -20 -20
4 15 6 11 14 12 -1 9 7 -7 -20 -20 -20 -20 -20 4 9 1 -6 29 37 29 26 29 16 20 34 26 34 10 14 2 3 -20 -20 -20 -20 -20 -20 -20 -20 -20 -20 -20 -20 -20 -20
13 7 7 6 8 16 16 -12 2 -4 -20 -20 -20 -20 -20 -20 -20 22 19 21 28 24 30 25 18 22 19 28 25 12 19 -13 -20 -20 -20 -20 -20 -20 -20 -20 -20 -20 -20 -20 -20 -20 -20
-20 12 7 13 1 13 16 13 -7 -7 -20 -20 -20 -20 -20 -20 -20 10 20 20 11 16 26 25 30 26 28 25 21 9 13 -19 -20 -20 -20 -20 -20 -20 -20 -20 -20 -20 -20 -20 -20 -20 -20
-20 -7 5 6 7 -2 17 9 10 -20 -20 -20 -20 -20 -20 -20 -20 -20 -20 -11 4 -1 16 6 17 12 -5 11 12 -19 -12 -20 -20 -20 -20 -20 -20 -20 -20 -20 -20 -20 -20 -20 -20 -20 -20
6 -20 -18 -0 6 4 5 17 16 7 -3 -20 -20 -20 -20 -20 -20 -20 -20 -14 -20 -1 -18 -20 -20 -1 -6 7 -8 -18 -20 -20 -20 -20 -20 -20 -20 -20 -20 -20 -20 -20 -20 -20 -20 -20 -20
13 -20 -18 -20 2 3 3 3 18 14 -0 -18 -20 -20 -20 -20 -20 -20 -20 -20 -20 -20 -19 8 2 -10 6 -2 -20 -20 -20 -20 -20 -20 -20 -20 -20 -20 -20 -20 -20 -20 -20 -20 -20 -20 -20
7 11 -20 -20 -20 -14 -9 -4 6 18 10 -2 -20 -20 -20 -20 -20 -20 -20 -20 -20 -20 -19 -20 -10 -20 -16 -2 -19 -20 -20 -20 -20 -20 -20 -20 -20 -20 -20 -20 -20 -20 -20 -20 -19 -20 -8
4 10 0 -20 -20 -20 -11 -20 -10 1 -1 1 -18 -20 -20 -20 -20 -20 -20 -20 -20 -20 -1 4 -16 -11 -9 -20 -20 -20 -20 -20 -20 -20 -20 -20 -20 -20 -20 -20 -20 -20 -20 -20 -20 -4 -5
7 -4 12 -17 -20 -20 -20 -10 -20 -15 -20 -20 -20 -20 -20 -20 -20 -20 -20 -20 -5 -12 -20 -19 -5 -17 -18 -20 -20 -10 -10 -20 -16 -4 -11 -20 -20 -20 -20 -20 -20 -20 -18 -20 6 -2 3
5 -3 10 11 -20 -20 5 1 -20 -20 -20 -20 -20 -20 -20 -20 -20 -20 -20 -20 -20 -2 -19 -20 -20 -2 0 3 -20 -19 -9 -17 -20 -7 -20 -17 -12 -20 -20 -20 9 -20 -1 4 2 9 -1
5 1 3 10 -20 -19 6 5 -6 -16 -20 -20 -20 -20 -20 -20 -20 -20 -20 -20 -11 -3 -20 -2 -20 -0 -3 -2 -13 -6 -20 -20 -20 -20 -20 -6 -4 -20 -20 -20 -20 7 14 3 -11 -16 3
4 -8 4 -11 -20 4 -19 5 -3 -16 -20 -20 -20 -20 -20 -20 -20 -20 -20 -20 -20 -20 -20 -20 -11 -17 -15 -11 -16 -20 -19 -20 -20 -20 -20 -17 -9 -20 -20 -20 -20 -13 -11 15 9 3 11
-4 6 -20 1 -17 -20 -20 2 -9 -20 -20 -20 -20 -20 -20 -20 -20 -20 -20 -20 -20 -20 -20 -20 -20 -10 -17 -3 -16 -20 -19 -20 -20 -20 -9 -14 -9 -20 -20 -20 6 -3 11 8 -11 -20 6
-20 4 -20 -19 -20 -20 -14 -20 -20 -20 -20 -20 -20 2 -20 -20 -20 -20 -20 -20 -20 -20 -20 -20 -20 -20 -20 -20 -20 -20 -20 -20 -20 -20 -20 -20 -14 -20 -20 -20 -20 -20 3 -7 10 4 -19
-20 -20 -20 -13 -20 -20 -13 -20 -20 -20 -20 -20 -20 -20 -20 -20 -20 -20 -20 -20 -20 -20 -20 -20 -20 -20 -20 -20 -20 -20 -20 -20 -20 -20 -10 -20 -18 -20 -20 -19 -20 -20 -20 -20 -12 -17 -9
-20 -20 -20 -20 -20 -20 -20 -20 -17 -20 -20 -20 -20 7 -20 -20 -20 -20 -20 -20 -20 -20 -20 -20 -20 -20 -20 -20 -20 -20 -20 -20 -20 -20 -20 -20 -20 -20 -20 -20 -20 -20 -20 -20 -13 -8 -20
-20 -20 -20 -20 -20 -20 -20 -20 -11 -20 -20 -20 -20 -20 -20 -20 -20 -20 -20 -20 -20 -20 -20 -20 -20 -20 -20 -20 -20 -20 -20 -20 -20 -20 -20 -20 -20 -20 -20 -20 -20 -20 -20 -20 -19 -20 -19
7 -20 -20 -20 -20 -20 -20 -20 -20 -20 -20 -18 -20 -20 -20 -20 -20 -20 -20 -20 -20 -20 -20 -20 -20 -20 -20 -20 -20 -20 -20 -20 -20 -20 -20 -20 -20 -20 -20 -20 -20 -20 -20 -20 -20 -20 -20
1 -20 -20 -20 -20 -20 -20 -20 -20 -20 -20 -1 -20 -20 -20 -20 -20 -20 -20 -20 -20 -20 -20 -20 -20 -20 -20 -20 -20 -20 -20 -20 -20 -20 -20 -20 -20 -20 -20 -20 -20 -20 -20 -20 -20 -20 -20
13 7 -20 -20 -20 -20 -20 -20 -20 -20 -20 -20 -20 -20 -20 -20 -20 -20 -20 -20 -20 -20 -20 -20 -20 -20 -20 -20 -20 -20 -20 -20 -20 -20 -20 -20 -20 -20 -20 -20 -20 -20 -20 -20 -20 -20 -20
13 13 2 -20 -20 -20 -20 -20 -20 -20 -20 -20 -20 -20 -20 -20 -20 -20 -20 -20 -20 -20 -20 -20 -20 -20 -20 -20 -20 -20 -20 -20 -20 -20 -20 -20 -20 -20 -20 -20 -20 -20 -20 -20 -20 -20 -20
8 -20 -20 -5 -20 -20 -20 -20 -20 -20 -20 -20 -20 -20 -20 -20 -20 -20 -20 -20 -20 -20 -20 -20 -20 -20 -20 -20 -20 -20 -20 -20 -20 -20 -20 -20 -20 -20 -20 -20 -20 -20 -20 -20 -20 -20 -20
-19 -16 -20 -10 -5 -20 -20 -20 -20 -20 -20 -20 -20 -20 -20 -20 -20 -20 -20 -20 -20 -20 -20 -20 -20 -20 -20 -20 -20 -20 -20 -20 -20 -20 -20 -20 -20 -20 -20 -20 -20 -20 -20 -20 -20 -20 -20
-20 -20 -20 -20 -17 -12 -20 -20 -20 -20 -20 -20 -20 -20 -20 -20 -20 -20 -20 -20 -20 -20 -20 -20 -20 -20 -20 -20 -20 -20 -20 -20 -20 -20 -20 -20 -20 -20 -20 -20 -20 -20 -20 -20 -20 -20 -20
-20 -20 -20 -20 -20 1 -1 2 -8 -20 -20 -20 -20 -20 -20 -20 -20 -20 -20 -20 -20 -20 -20 -20 -20 -20 -20 -20 -20 -20 -20 -20 -20 -20 -20 -20 -20 -20 -20 -20 -20 -20 -20 -20 -20 -20 -20

GFSGBSN_prec_radar_120.txt.gz
Reflectivity
4 6 -15 15 9 -10 8 9 8 -19 -5 -12 -5 -20 -20 -19 -20 -20 -10 -20 -20 -20 -20 -20 -4 19 31 22 15 15 15 1 -20 -20 -20 -20 -20 -20 -20 -20 -20 -20 -20 -20 -20 -20 -20
9 3 -6 13 11 -14 10 9 -2 8 -20 -10 -20 -20 -20 -20 -20 -20 -20 -20 -20 -20 -20 -20 25 27 -1 13 13 20 12 7 -20 -20 -20 -20 -20 -20 -20 -20 -20 -20 -20 -20 -20 -20 -20
4 16 -17 9 15 4 -7 4 5 -2 -20 -20 -20 -20 -20 -20 -20 -20 -20 -20 -20 -20 -20 13 30 40 -20 30 19 24 29 25 -20 -20 -20 -20 -20 -20 -20 -20 -20 -20 -20 -20 -20 -20 -20
9 13 4 1 13 13 -20 -7 -19 0 -20 -20 -20 -20 -20 -15 -20 -20 -19 -20 -20 -16 18 26 29 29 31 29 28 26 32 30 -17 -20 -20 -20 -20 -20 -20 -20 -20 -20 -20 -20 -20 -20 -20
-6 17 12 10 6 -5 14 -18 -20 -20 -20 -20 -20 -20 -20 5 10 -20 6 25 3 27 24 30 29 8 28 32 24 28 27 32 -10 -20 -20 -20 -20 -20 -20 -20 -20 -20 -20 -20 -20 -20 -20
-20 3 12 10 15 8 6 14 -20 -20 -20 -20 -20 -20 -17 -19 13 -1 -6 21 18 17 17 25 6 5 24 29 24 24 18 -10 -4 -20 -20 -20 -20 -20 -20 -20 -20 -20 -20 -20 -20 -20 -20
-20 -20 -5 14 18 12 2 9 10 -4 -20 -20 -20 -20 -20 -20 -20 -20 -7 12 10 28 24 27 26 7 10 -3 -5 12 -19 -9 -20 -20 -20 -20 -20 -20 -20 -20 -20 -20 -20 -20 -20 -20 -20
6 -20 -20 -20 12 19 14 6 1 -2 -1 -20 -20 -20 -20 -20 -20 -20 -10 -12 -6 -4 22 11 -14 -17 -18 -20 -14 -20 -20 -20 -20 -20 -20 -20 -20 -20 -20 -20 -20 -20 -20 -20 -20 -20 -20
10 -10 -20 -20 -20 17 18 3 5 1 -18 -20 -20 -20 -20 -20 -20 -20 -20 -20 -16 -14 -20 -20 -15 -20 6 3 -17 -20 -20 -20 -20 -20 -20 -20 -20 -20 -20 -20 -20 -20 -20 -20 -20 -20 -20
7 3 -20 -20 -20 -18 17 17 -3 -2 -20 -20 -20 -20 -20 -20 -20 -20 -20 -20 -20 -20 -20 -20 -9 -20 -4 -16 -6 -16 -18 -20 -20 -20 -20 -20 -20 -20 -20 -20 -20 -20 -20 -20 -20 -20 -20
8 11 -10 -20 -20 -20 16 18 15 -7 -20 -20 -20 -20 -20 -20 -20 -20 -20 -20 -20 -20 -20 -20 -20 -20 -20 -20 -20 -7 -18 -20 -20 -20 -20 -20 -20 -20 -20 -20 -20 -20 -20 -20 -20 -20 -8
-6 -3 7 1 -20 1 15 18 17 10 -20 -20 -20 -20 -20 -20 -20 -20 -20 -20 -20 -20 -8 -9 -20 -20 -20 -20 -20 -20 -20 -20 -20 -20 -20 -20 -20 -20 -20 -20 -20 -20 -20 -20 -20 -20 -20
4 2 -1 2 -20 4 10 12 17 2 -20 -20 -20 -20 -20 -20 -20 -20 -20 -20 -20 -8 -20 -20 -20 -20 -20 -20 -20 -20 -20 -20 -20 -20 -20 -20 -20 -20 -20 -19 -20 -20 -20 -20 -20 -20 -20
-5 4 -20 8 -20 14 -18 5 11 0 -20 -20 -20 -20 -20 -20 -20 -20 -20 -20 -20 -20 -20 -20 -20 -20 -20 -20 -20 -20 -20 -9 -20 -20 -20 -20 -20 -20 -20 -17 1 -20 -6 -17 -20 -20 -20
-6 -3 -5 -9 -20 -13 12 -17 9 -20 -20 -20 -20 -20 -20 -20 -20 -20 -20 -20 -20 -20 -20 -20 -19 -20 -20 -20 -20 -20 -20 -20 -20 -20 -20 -17 -18 -20 -20 -20 -20 -20 -16 -5 -20 -20 -7
-20 -17 -2 -6 -20 -9 -7 -20 -20 -20 -20 -20 -20 -20 -20 -20 -20 -20 -20 -20 -20 -20 -20 -20 2 -20 -20 -20 -20 -20 -20 -20 -20 -20 -20 -20 -20 -20 -20 -20 -20 -20 -20 -10 -9 -13 -13
-2 -20 -6 -7 -20 -20 -20 -20 -20 -20 -20 -20 -20 -20 -20 -20 -20 -20 -20 -20 -20 -20 -20 -20 -20 -20 -20 -20 -20 -20 -20 -20 -20 -20 -20 -19 -9 -20 -20 -20 -2 -14 -0 -17 -15 -20 -4
-20 2 -20 -2 -20 -20 -20 -20 -20 -20 -20 -20 -20 -20 -20 -20 -20 -20 -20 -20 -20 -20 -20 -20 -20 -20 -20 -20 -20 -20 -20 -20 -20 -20 -20 -20 -20 -20 -20 -20 -20 -20 -20 -20 -11 -6 -20
-20 -20 -20 -20 -20 -20 -20 -20 -20 -20 -15 -20 -20 -20 -20 -20 -20 -20 -20 -20 -20 -20 -20 -20 -20 -20 -20 -20 -20 -20 -20 -20 -20 -20 -20 -20 -20 -20 -20 -20 -20 -20 -20 -20 -20 -20 -20
-19 -20 -20 -20 -20 -20 -20 -20 -20 -20 -17 -20 -20 -19 -20 -20 -20 -20 -20 -20 -20 -20 -20 -20 -20 -20 -20 -20 -20 -20 -20 -20 -20 -20 -20 -20 -20 -20 -20 -20 -20 -20 -20 -20 -20 -20 -20
-7 -20 -20 -20 -20 -20 -20 -20 -20 -20 -18 -20 -20 -20 -20 -20 -20 -20 -20 -20 -20 -20 -20 -20 -20 -20 -20 -20 -20 -20 -20 -20 -20 -20 -20 -20 -20 -20 -20 -20 -20 -20 -20 -20 -20 -20 -20
9 -20 -20 -20 -20 -20 -20 -20 -20 -20 -20 -19 -20 -20 -20 -20 -20 -20 -20 -20 -20 -20 -20 -20 -20 -20 -20 -20 -20 -20 -20 -20 -20 -20 -20 -20 -20 -20 -20 -20 -20 -20 -20 -20 -20 -20 -20
-20 -20 -20 -20 -20 -20 -20 -20 -20 -20 -20 -20 -20 -20 -16 -20 -20 -20 -20 -20 -20 -20 -20 -20 -20 -20 -20 -20 -20 -20 -20 -20 -20 -20 -20 -20 -20 -20 -20 -20 -20 -20 -20 -20 -20 -20 -20
-2 -20 -20 -20 -20 -20 -20 -20 -20 -20 -20 -20 -20 -20 -20 -19 -20 -20 -20 -20 -20 -20 -20 -20 -20 -20 -20 -20 -20 -20 -20 -20 -20 -20 -20 -20 -20 -20 -20 -20 -20 -20 -20 -20 -20 -20 -20
4 3 -20 -20 -20 -20 -20 -20 -20 -20 -20 -20 -20 -20 -20 -20 -20 -20 -20 -20 -20 -20 -20 -20 -20 -20 -20 -20 -20 -20 -20 -20 -20 -20 -20 -20 -20 -20 -20 -20 -20 -20 -20 -20 -20 -20 -20
12 -3 -18 -2 -19 -20 -20 -20 -20 -20 -20 -20 -20 -20 -20 -20 -20 -20 -20 -20 -20 -20 -20 -20 -20 -20 -20 -20 -20 -20 -20 -20 -20 -20 -20 -20 -20 -20 -20 -20 -20 -20 -20 -20 -20 -20 -20
11 12 -4 6 -20 -20 -20 -20 -20 -20 -20 -20 -20 -20 -20 -20 -20 -20 -20 -20 -20 -20 -20 -20 -20 -20 -20 -20 -20 -20 -20 -20 -20 -20 -20 -20 -20 -20 -20 -20 -20 -20 -20 -20 -20 -20 -20
-20 12 12 4 -20 -20 -20 -20 -20 -20 -20 -20 -20 -20 -20 -20 -20 -20 -20 -20 -20 -20 -20 -20 -20 -20 -20 -20 -20 -20 -20 -20 -20 -20 -20 -20 -20 -20 -20 -20 -20 -20 -20 -20 -20 -20 -20
-20 -20 0 -20 -20 -20 -20 -20 -20 -20 -20 -20 -20 -20 -20 -20 -20 -20 -20 -20 -20 -20 -20 -20 -20 -20 -20 -20 -20 -20 -20 -20 -20 -20 -20 -20 -20 -20 -20 -20 -20 -20 -20 -20 -20 -20 -20

GFSGBSN_prec_radar_126.txt.gz
Reflectivity
4 6 5 9 13 18 6 -18 -20 -20 12 12 20 12 10 13 2 -20 -20 -20 7 27 25 35 36 41 35 33 30 19 18 -20 -20 -20 -20 -20 -20 -20 -20 -20 -20 -20 -20 -20 -20 -20 -20
9 6 2 7 15 20 16 -7 -20 -20 -14 5 17 17 18 4 4 -20 -20 12 24 4 24 28 31 36 39 36 35 30 -13 -20 -20 -20 -20 -20 -20 -20 -20 -20 -20 -20 -20 -20 -20 -20 -20
-19 15 5 8 15 10 12 2 -20 -20 -20 -20 -15 -10 -20 -17 4 23 23 25 -4 -13 13 18 27 31 32 30 34 13 -20 -20 -20 -20 -20 -20 -20 -20 -20 -20 -20 -20 -20 -20 -20 -20 -20
-1 0 10 8 14 12 1 13 -20 -20 -20 -20 -20 -20 -19 -20 -9 19 18 25 3 18 -1 5 19 12 19 30 2 -20 -11 -20 -20 -20 -20 -20 -20 -20 -20 -20 -20 -20 -20 -20 -20 -20 -20
-20 -4 2 -4 12 7 12 12 -20 -20 -20 -20 -20 -20 -20 -20 -2 12 -11 -20 17 -11 2 -5 9 11 17 17 23 -2 19 -20 -20 -20 -20 -20 -20 -20 -20 -20 -20 -20 -20 -20 -20 -20 -20
4 -20 -6 13 8 4 1 2 -18 -20 -20 -20 -20 -20 -20 -20 -20 5 -1 -20 -20 -20 -20 -20 -5 4 12 18 21 11 5 -19 -20 -20 -20 -20 -20 -20 -20 -20 -20 -20 -20 -20 -20 -20 -20
-18 12 -20 13 16 13 -0 3 9 -20 -20 -20 -20 -20 -20 -20 -20 -9 -20 -20 -20 -20 -20 -20 3 -20 -20 6 -6 -19 -20 -20 -19 -20 -20 -20 -20 -20 -20 -20 -20 -20 -20 -20 -20 -20 -20
13 15 10 -1 16 10 9 -8 11 -20 -20 -20 -20 -20 -20 -20 -20 -20 -17 -20 -20 -20 -20 -20 -9 -20 -20 -20 -20 -20 -20 -20 -20 -20 -20 -20 -20 -20 -20 -20 -20 -20 -20 -20 -20 -20 -20
15 10 15 13 16 13 -2 -4 -2 -20 -20 -20 -20 -20 -20 -20 -20 -20 -20 -20 -20 -20 -20 -20 -20 -20 -20 -20 -20 -20 -20 -20 -20 -20 -20 -20 -20 -20 -20 -20 -20 -20 -20 -20 -20 -20 -20
13 10 -14 0 12 14 0 -20 -20 -20 -20 -20 -20 -20 -20 -20 -20 -20 -20 -20 -20 -20 -20 -20 -20 -20 -20 -20 -20 -20 -20 -20 -20 -20 -20 -20 -20 -20 -20 -20 -20 -20 -20 -20 -20 -20 -20
2 6 -0 -17 3 1 -3 -20 -20 -20 -20 -20 -20 -20 -20 -20 -20 -20 -20 -20 -20 -20 -20 -20 -20 -20 -20 -20 -20 -20 -4 -20 -20 -20 -20 -20 -20 -20 -20 -20 -20 -20 -20 -20 -20 -20 -20
-2 2 4 -20 -20 -20 -20 -20 -20 -20 -20 -20 -20 -20 -20 -20 -20 -20 -20 -20 -20 -20 -20 -20 -20 -20 -20 -20 -20 -20 -20 -20 -20 -20 -20 -20 -20 -20 -20 -20 -20 -20 -20 -20 -20 -20 -20
7 -16 3 -20 -20 -20 -20 -1 -20 -20 -20 -20 -20 -20 -20 -20 -20 -20 -20 -20 -20 -20 -20 -20 -20 -20 -20 -20 -20 -20 -20 -20 -20 -20 -20 -20 -20 -20 -20 -20 -20 -20 -20 -20 -20 -20 -20
-2 4 6 -20 -20 -20 -20 -20 -20 -20 -20 -20 -20 -20 -20 -20 -20 -20 -20 -20 -20 -20 -20 -20 -20 -20 -20 -20 -20 -20 -20 -20 -20 -20 -20 -20 -20 -20 -20 -20 -20 -20 -20 -20 -20 -20 -20
-20 -13 1 -17 -20 -20 -20 -20 -20 -20 -20 -20 -20 -20 -20 -20 -20 -20 -20 -20 -20 -20 -20 -20 -20 -20 -20 -20 -20 -20 -20 -20 -20 -20 -20 -20 -20 -20 -20 -20 -20 -20 -20 -20 -20 -20 -20
-20 -20 -20 -18 -20 -20 -20 -20 -20 -20 -20 -20 -20 -20 -20 -20 -20 -20 -20 -20 -20 -20 -20 -20 -20 -20 -20 -20 -20 -20 -20 -20 -20 -20 -20 -20 -20 -20 -20 -20 -20 -20 -20 -20 -20 -20 -20
-19 -20 -20 -20 -20 -20 -20 -20 -20 -20 -20 -20 -20 -20 -20 -20 -20 -20 -20 -20 -20 -20 -20 -20 -20 -20 -20 -20 -20 -20 -20 -20 -20 -20 -20 -20 -20 -20 -20 -20 -20 -20 -20 -20 -20 -20 -20
10 -20 -20 -20 -20 -20 -20 -20 -20 -20 -20 -20 -20 -20 -20 -20 -20 -20 -20 -20 -20 -20 -20 -20 -20 -20 -20 -20 -20 -20 -20 -20 -20 -20 -20 -20 -20 -20 -20 -20 -20 -20 -20 -20 -20 -20 -20
-19 -20 -20 -20 -20 -20 -20 -20 -20 -20 -20 -20 -20 -20 -20 -20 -20 -20 -20 -20 -20 -20 -20 -20 -20 -20 -20 -20 -20 -20 -20 -20 -20 -20 -20 -20 -20 -20 -20 -20 -20 -20 -20 -20 -20 -20 -20
6 -7 -20 -20 -20 -20 -20 -20 -20 -20 -20 -20 -20 -20 -20 -20 -20 -20 -20 -20 -20 -20 -20 -20 -20 -20 -20 -20 -20 -20 -20 -20 -20 -20 -20 -20 -20 -20 -20 -20 -20 -20 -20 -20 -20 -20 -20
16 8 -20 -20 -20 -20 -20 -20 -20 -20 -20 -20 -20 -20 -20 -20 -20 -20 -20 -20 -20 -20 -20 -20 -20 -20 -20 -20 -20 -20 -20 -20 -20 -20 -20 -20 -20 -20 -20 -20 -20 -20 -20 -20 -20 -20 -20
14 -9 10 -7 -20 -20 -20 -20 -20 -20 -20 -20 -20 -20 -20 -20 -20 -20 -20 -20 -20 -20 -20 -20 -20 -20 -20 -20 -20 -20 -20 -20 -20 -20 -20 -20 -20 -20 -20 -20 -20 -20 -20 -20 -20 -20 -20
2 11 -11 3 -20 -20 -20 -20 -20 -20 -20 -20 -20 -20 -20 -20 -20 -20 -20 -20 -20 -20 -20 -20 -20 -20 -20 -20 -20 -20 -20 -20 -20 -20 -20 -20 -20 -20 -20 -20 -20 -20 -20 -20 -20 -20 -20
8 5 -20 -20 -11 -20 -20 -20 -20 -20 -20 -20 -20 -20 -20 -20 -20 -20 -20 -20 -20 -20 -20 -20 -20 -20 -20 -20 -20 -20 -20 -20 -20 -20 -20 -20 -20 -20 -20 -20 -20 -20 -20 -20 -20 -20 -20
-4 7 7 -20 -20 -20 -20 -20 -20 -20 -20 -20 -20 -20 -20 -20 -20 -20 -20 -20 -20 -20 -20 -20 -20 -20 -20 -20 -20 -20 -20 -20 -20 -20 -20 -20 -20 -20 -20 -20 -20 -20 -20 -20 -20 -20 -20
-20 -16 16 17 10 7 -20 -20 -20 -20 -20 -20 -20 -20 -20 -20 -20 -20 -20 -20 -20 -20 -20 -20 -20 -20 -20 -20 -20 -20 -20 -20 -20 -20 -20 -20 -20 -20 -20 -20 -20 -20 -20 -20 -20 -20 -20
-20 -20 -6 -0 10 7 8 -19 -20 -20 -20 -20 -20 -20 -20 -20 -20 -20 -20 -20 -20 -20 -20 -20 -20 -20 -20 -20 -20 -20 -20 -20 -20 -20 -20 -20 -20 -20 -19 -20 -20 -20 -20 -20 -20 -20 -20
-3 -20 -20 -20 -20 -16 -6 9 7 -18 -20 -20 -20 -20 -20 -20 -20 -20 -20 -20 -20 -20 -20 -20 -20 -20 -20 -20 -20 -20 -20 -20 -20 -20 -20 -20 -20 -20 -20 -20 -20 -20 -20 -20 -20 -20 -20
13 13 -20 -20 -20 5 -18 -20 -20 -20 -20 -20 -20 -20 -20 -20 -20 -20 -20 -20 -20 -20 -20 -20 -20 -20 -20 -20 -20 -20 -20 -20 -20 -20 -20 -20 -20 -20 -20 -20 -20 -20 -20 -20 -20 -20 -20

GFSGBSN_prec_radar_129.txt.gz
Reflectivity
13 15 17 16 7 5 10 -20 -20 -20 -3 9 10 10 2 -3 -20 -20 16 28 33 29 29 -8 26 19 46 37 27 -20 -20 -20 -20 -20 -20 -20 -20 -20 -20 -20 -20 -20 -20 -20 -20 -20 -20
16 2 10 16 14 10 14 -20 -20 -20 -20 1 -20 -20 1 18 23 25 14 17 27 26 30 31 25 34 30 28 12 6 -11 -20 -20 -20 -20 -20 -20 -20 -20 -20 -20 -20 -20 -20 -20 -20 -20
-19 18 -1 15 16 17 12 -20 -20 -20 -20 -19 -20 -20 -20 -19 -9 27 9 29 21 17 31 33 23 -8 -6 32 16 -10 -20 -20 -20 -20 -20 -20 -20 -20 -20 -20 -20 -20 -20 -20 -20 -20 -20
0 -13 18 11 17 17 16 1 -20 -20 -20 -20 -20 -20 -20 -15 3 9 31 14 17 25 30 34 31 28 31 24 14 -16 -16 -20 -20 -20 -20 -20 -20 -20 -20 -20 -20 -20 -20 -20 -20 -20 -20
14 7 -7 19 11 18 17 12 -20 -20 -20 -20 -20 -20 -20 -20 -20 -20 -15 -11 6 8 24 36 36 31 27 26 27 7 -20 -20 -20 -20 -20 -20 -20 -20 -20 -20 -20 -20 -20 -20 -20 -20 -20
18 2 17 14 14 18 17 15 -20 -20 -20 -20 -20 -20 -20 -20 -20 -20 -20 -20 -5 -17 12 14 17 11 16 -11 -14 -15 -20 -20 -20 -20 -20 -20 -20 -20 -20 -20 -20 -20 -20 -20 -20 -20 -20
10 7 10 15 15 18 17 1 -20 -20 -20 -20 -20 -20 -20 -20 -20 -20 -20 -20 -20 -20 -16 -12 15 -20 0 -20 2 -18 -20 -20 -20 -20 -20 -20 -20 -20 -20 -20 -20 -20 -20 -20 -20 -20 -20
12 3 -6 -2 16 12 17 17 -17 -20 -20 -20 -20 -20 -20 -20 -20 -1 -4 -20 -20 -20 -20 -20 -20 -20 -20 -20 -20 -20 -20 -20 -20 -20 -20 -20 -20 -20 -20 -20 -20 -20 -20 -20 -20 -20 -20
11 8 -2 -2 7 6 17 16 -3 -20 -20 -20 -20 -20 -20 -20 -20 -20 -20 -20 -20 -20 -20 -20 -20 -20 -20 -20 -20 -20 -20 -20 -20 -20 -20 -20 -20 -20 -20 -20 -20 -20 -20 -20 -20 -20 -20
-14 6 -2 -1 5 -13 -3 4 3 -19 -20 -20 -20 -20 -20 -20 -20 -20 -20 -20 -20 -20 -20 -20 -20 -20 -20 -20 -20 -20 -20 -20 -20 -20 -20 -20 -20 -20 -20 -20 -20 -20 -20 -20 -20 -20 -20
0 -1 -7 -20 5 10 9 -15 -20 -20 -20 -20 -20 -20 -20 -20 -20 -20 -20 -20 -20 -20 -20 -20 -20 -20 -20 -20 -20 -20 -20 -20 -20 -20 -20 -20 -20 -20 -20 -20 -20 -20 -20 -20 -20 -20 -20
1 -6 2 -20 -20 -20 -11 -12 -20 -20 -20 -20 -20 -20 -20 -20 -20 -20 -20 -20 -20 -20 -20 -20 -20 -20 -20 -20 -20 -20 -20 -20 -20 -20 -20 -20 -20 -20 -20 -20 -20 -20 -20 -20 -20 -20 -20
1 -12 1 -20 -20 -20 -20 -20 -20 -20 -20 -20 -20 -20 -20 -20 -20 -20 -20 -20 -20 -20 -20 -20 -20 -20 -20 -20 -20 -20 -20 -20 -20 -20 -20 -20 -20 -20 -20 -20 -20 -20 -20 -20 -20 -20 -20
-18 -4 -12 -20 -20 -20 -20 -20 -20 -20 -20 -20 -20 -20 -20 -20 -20 -20 -20 -20 -20 -20 -20 -20 -20 -20 -20 -20 -20 -20 -20 -20 -20 -20 -20 -20 -20 -20 -20 -20 -20 -20 -20 -20 -20 -20 -20
-20 -20 -6 -20 -20 -20 -20 -20 -20 -20 -20 -20 -20 -20 -20 -20 -20 -20 -20 -20 -20 -20 -20 -20 -20 -20 -20 -20 -20 -20 -20 -20 -20 -20 -20 -20 -20 -20 -20 -20 -20 -20 -20 -20 -20 -20 -20
-4 -20 -20 -20 -20 -20 -20 -20 -20 -20 -20 -20 -20 -20 -20 -20 -20 -20 -20 -20 -20 -20 -20 -20 -20 -20 -20 -20 -20 -20 -20 -20 -20 -20 -20 -20 -20 -20 -20 -20 -20 -20 -20 -20 -20 -20 -20
16 -20 -20 -20 -20 -20 -20 -20 -20 -20 -20 -20 -20 -20 -20 -20 -20 -20 -20 -20 -20 -20 -20 -20 -20 -20 -20 -20 -20 -20 -20 -20 -20 -20 -20 -20 -20 -20 -20 -20 -20 -20 -20 -20 -20 -20 -20
16 -20 -20 -20 -20 -20 -20 -20 -20 -20 -20 -20 -20 -20 -20 -20 -20 -20 -20 -20 -20 -20 -20 -20 -20 -20 -20 -20 -20 -20 -20 -20 -20 -20 -20 -20 -20 -20 -20 -20 -20 -20 -20 -20 -20 -20 -20
16 11 -20 -20 -20 -20 -20 -20 -20 -20 -20 -20 -20 -20 -20 -20 -20 -20 -20 -20 -20 -20 -20 -20 -20 -20 -20 -20 -20 -20 -20 -20 -20 -20 -20 -20 -20 -20 -20 -20 -20 -20 -20 -20 -20 -20 -20
17 17 0 -20 -20 -20 -20 -20 -20 -20 -20 -20 -20 -20 -20 -20 -20 -20 -20 -20 -20 -20 -20 -20 -20 -20 -20 -20 -20 -20 -20 -20 -20 -20 -20 -20 -20 -20 -20 -20 -20 -20 -20 -20 -20 -20 -20
6 8 13 -20 -20 -20 -20 -20 -20 -20 -20 -20 -20 -20 -20 -20 -20 -20 -20 -20 -20 -20 -20 -20 -20 -20 -20 -20 -20 -20 -20 -20 -20 -20 -20 -20 -20 -20 -20 -20 -20 -20 -20 -20 -20 -20 -20
-20 6 5 1 -20 -20 -20 -20 -20 -20 -20 -20 -20 -20 -20 -20 -20 -20 -20 -20 -20 -20 -20 -20 -20 -20 -20 -20 -20 -20 -20 -20 -20 -20 -20 -20 -20 -20 -20 -20 -20 -20 -20 -20 -20 -20 -20
-2 12 14 14 -20 -20 -20 -20 -14 -20 -20 -20 -20 -20 -20 -20 -20 -20 -20 -20 -20 -20 -20 -20 -20 -20 -20 -20 -20 -20 -20 -20 -20 -20 -20 -20 -20 -20 -20 -20 -20 -20 -20 -20 -20 -20 -20
-20 11 13 13 14 8 -20 -20 -20 -20 -20 -20 -20 -20 -20 -20 -20 -20 -20 -20 -20 -20 -20 -20 -20 -20 -20 -20 -20 -20 -20 -20 -20 -20 -20 -20 -20 -20 -20 -20 -20 -20 -20 -20 -20 -20 -20
-20 -20 12 14 16 10 -20 -20 -20 -20 -20 -20 -20 -20 -20 -20 -20 -20 -20 -20 -20 -20 -20 -20 -20 -20 -20 -20 -20 -20 -20 -20 -20 -20 -20 -20 -20 -20 -20 -20 -20 -20 -20 -20 -20 -20 -20
-20 -20 -8 11 10 13 9 -20 -20 -20 -20 -20 -20 -20 -20 -20 -20 -20 -20 -20 -20 -20 -20 -20 -20 -20 -20 -20 -20 -20 -20 -20 -20 -20 -20 -20 -20 -20 -20 -20 -20 -20 -20 -20 -20 -20 -20
13 3 -16 -20 13 13 11 10 7 -20 -20 -20 -20 -20 -20 -20 -20 -20 -20 -20 -20 -20 -20 -20 -20 -20 -20 -20 -20 -20 -20 -20 -20 -20 -20 -20 -20 -18 -19 -15 -20 -20 -20 -20 -20 -20 -20
9 14 12 -3 -20 -19 5 -2 4 2 -20 -20 -20 -20 -20 -20 -20 -20 -20 -20 -20 -20 -20 -20 -20 -20 -20 -20 -20 -20 -20 -20 -20 -20 -20 -20 -20 -19 -20 -20 -20 -20 -20 -20 -20 -20 -20
-20 -4 3 -17 10 13 -2 11 -4 4 -20 -20 -14 -1 -10 -20 -20 -20 -20 -20 -20 -20 -20 -20 -20 -20 -20 -20 -20 -20 -20 -20 -20 -20 -20 -20 -20 -20 -20 -20 -20 -20 -20 -20 -20 -20 -20

GFSGBSN_prec_radar_132.txt.gz
Reflectivity
9 -4 -9 12 15 15 -7 9 17 18 -3 3 -17 10 12 19 25 28 28 30 31 22 11 23 9 -19 30 32 25 -20 -20 -20 -20 -20 -20 -20 -20 -20 -20 -20 -20 -20 -20 -20 -20 -20 -20
-20 -0 9 8 14 13 13 -16 -16 4 -17 -20 -20 -12 -5 -7 19 31 30 31 31 27 23 -13 -20 -20 -2 13 23 -20 -20 -20 -20 -20 -20 -20 -20 -20 -20 -20 -20 -20 -20 -20 -20 -20 -20
15 1 13 8 16 7 5 -15 -20 -20 -20 -20 -20 -20 -20 -20 14 23 21 32 34 28 19 13 -20 -20 -14 33 18 -20 -20 -20 -20 -20 -20 -20 -20 -20 -20 -20 -20 -20 -20 -20 -20 -20 -20
15 17 15 7 17 -3 16 -19 -20 -20 -20 -20 -20 -20 -20 -20 -20 -4 13 27 28 34 23 -20 23 24 24 28 -17 -19 -20 -20 -20 -20 -20 -20 -20 -20 -20 -20 -20 -20 -20 -20 -20 -20 -20
18 11 18 17 11 14 13 -3 -20 -20 -20 -20 -20 -20 -20 -20 -20 -20 -3 25 28 26 23 10 11 12 20 11 5 -20 -20 -20 -20 -20 -20 -20 -20 -20 -20 -20 -20 -20 -20 -20 -20 -20 -20
6 9 17 16 14 17 15 16 -20 -20 -20 -20 -20 -20 -20 -20 -20 -20 -12 -0 -12 29 13 0 2 25 31 29 -19 -20 -20 -20 -20 -20 -20 -20 -20 -20 -20 -20 -20 -20 -20 -20 -20 -20 -20
6 8 -3 16 16 14 15 16 11 -20 -20 -20 -20 -20 -20 -20 -20 -20 -20 -20 -20 -20 -8 20 8 -1 -20 -5 -6 -20 -20 -20 -20 -20 -20 -20 -20 -20 -20 -20 -20 -20 -20 -20 -20 -20 -20
9 3 -11 15 13 4 14 11 10 -20 -20 -20 -20 -20 -20 -20 -20 -20 -20 -20 -20 -20 -20 -20 -20 -20 -20 -20 -20 -20 -20 -20 -20 -20 -20 -20 -20 -20 -20 -20 -20 -20 -20 -20 -20 -20 -20
8 10 -20 -12 15 13 6 11 -3 -20 -20 -20 -20 -20 -20 -20 -20 -20 -20 -20 -20 -20 -20 -20 -20 -20 -20 -20 -20 -20 -20 -20 -20 -20 -20 -20 -20 -20 -20 -20 -20 -20 -20 -20 -20 -20 -20
15 5 -10 -14 -20 -11 -15 4 15 -10 -20 -20 -20 -20 -20 -20 -20 -20 -20 -20 -20 -20 -20 -20 -20 -20 -20 -20 -20 -20 -20 -20 -20 -20 -20 -20 -20 -20 -20 -20 -20 -20 -20 -20 -20 -20 -20
1 3 -14 -20 -20 -20 -20 -20 -20 -20 -20 -20 -20 -20 -20 -20 -20 -20 -20 -20 -20 -20 -20 -20 -20 -20 -20 -20 -20 -20 -20 -20 -20 -20 -20 -20 -20 -20 -20 -20 -20 -20 -20 -20 -20 -20 -20
1 -6 -14 -20 -20 -20 -20 -20 -20 -20 -20 -20 -20 -20 -20 -20 -20 -20 -20 -20 -20 -20 -20 -20 -20 -20 -20 -20 -20 -20 -20 -20 -20 -20 -20 -20 -20 -20 -20 -20 -20 -20 -20 -20 -20 -20 -20
-20 -2 -14 -20 -20 -20 -20 -20 -20 -20 -20 -20 -20 -20 -20 -20 -20 -20 -20 -20 -20 -20 -20 -20 -20 -20 -20 -20 -20 -20 -20 -20 -20 -20 -20 -20 -20 -20 -20 -20 -20 -20 -20 -20 -20 -20 -20
-20 -20 -20 -20 -20 -20 -20 -20 -20 -20 -20 -20 -20 -20 -20 -20 -20 -20 -20 -20 -20 -20 -20 -20 -20 -20 -20 -20 -20 -20 -20 -20 -20 -20 -20 -20 -20 -20 -20 -20 -20 -20 -20 -20 -20 -20 -20
7 -20 -20 -20 -20 -20 -20 -20 -20 -20 -20 -20 -20 -20 -20 -20 -20 -20 -20 -20 -20 -20 -20 -20 -20 -20 -20 -20 -20 -20 -20 -20 -20 -20 -20 -20 -20 -20 -20 -20 -20 -20 -20 -20 -20 -20 -11
9 -20 -20 -20 -20 -20 -20 -20 -20 -20 -20 -20 -20 -20 -20 -20 -20 -20 -20 -20 -20 -20 -20 -20 -20 -20 -20 -20 -20 -20 -20 -20 -20 -20 -20 -20 -20 -20 -20 -20 -20 -20 -20 -20 -20 -20 -20
0 -20 -20 -20 -20 -20 -20 -20 -20 -20 -20 -20 -20 -20 -20 -20 -20 -20 -20 -20 -20 -20 -20 -20 -20 -20 -20 -20 -20 -20 -20 -20 -20 -20 -20 -20 -20 -20 -20 -20 -20 -20 -20 -20 -20 -20 -20
3 -1 -20 -20 -20 -20 -20 -20 -20 -20 -20 -20 -20 -20 -20 -20 -20 -20 -20 -20 -20 -20 -20 -20 -20 -20 -20 -20 -20 -20 -20 -20 -20 -20 -20 -20 -20 -20 -20 -20 -20 -20 -20 -20 -20 -20 -20
1 -13 -1 -20 -20 -20 -20 -20 -20 -20 -20 -20 -20 -20 -20 -20 -20 -20 -20 -20 -20 -20 -20 -20 -20 -20 -20 -20 -20 -20 -20 -20 -20 -20 -20 -20 -20 -20 -20 -20 -20 -20 -20 -20 -20 -20 -20
1 16 12 5 -20 -20 -20 -20 -20 -20 -20 -20 -20 -20 -20 -20 -20 -20 -20 -20 -20 -20 -20 -20 -20 -20 -20 -20 -20 -20 -20 -20 -20 -20 -20 -20 -20 -20 -20 -20 -20 -20 -20 -20 -20 -20 -20
-13 14 14 14 3 -20 -20 -20 -20 -20 -20 -20 -20 -20 -20 -20 -20 -20 -20 -20 -20 -20 -20 -20 -20 -20 -20 -20 -20 -20 -20 -20 -20 -20 -20 -20 -20 -20 -20 -20 -20 -20 -20 -20 -20 -20 -20
-3 5 11 17 15 -17 -20 -20 -20 -20 -20 -20 -20 -20 -20 -20 -20 -20 -20 -20 -20 -20 -20 -20 -20 -20 -20 -20 -20 -20 -20 -20 -20 -20 -20 -20 -20 -20 -20 -20 -20 -20 -20 -20 -20 -20 -20
-20 -10 7 15 12 5 -20 -20 -20 -20 -6 -20 -20 -20 -20 -20 -20 -20 -20 -20 -20 -20 -20 -20 -20 -20 -20 -20 -20 -20 -20 -20 -20 -20 -20 -20 -20 -20 -20 -20 -20 -20 -20 -20 -20 -20 -20
-20 -20 -20 13 9 10 -18 -20 -20 -20 -20 -20 -20 -20 -20 -20 -20 -20 -20 -20 -20 -20 -20 -20 -20 -20 -20 -20 -20 -20 -20 -20 -20 -20 -20 -20 -20 -20 -20 -20 -20 -20 -20 -20 -20 -20 -20
-20 -20 -20 -20 -16 1 -2 -4 -20 -20 -20 -20 -20 -20 -20 -20 -20 -20 -20 -20 -20 -20 -20 -20 -20 -20 -20 -20 -20 -20 -20 -20 -20 -20 -20 -20 -20 -20 -20 -20 -20 -20 -20 -20 -20 -20 -20
10 8 -20 -20 -20 -16 3 -20 -14 -20 -20 -20 -20 -20 -20 -20 -20 -20 -20 -20 -20 -20 -20 -20 -20 -20 -20 -20 -20 -20 -20 -20 -20 -20 -20 -20 -20 -20 -20 -20 -20 -20 -20 -20 -20 -20 -20
-12 1 10 9 -11 -20 -20 -15 -14 -4 -20 -20 -20 -20 -20 -20 -20 -20 -20 -20 -20 -20 -20 -20 -20 -20 -20 -20 -20 -20 -20 -20 -20 -20 -20 -20 -20 -18 -20 -20 -20 -20 -20 -20 -20 -20 -20
-8 -11 3 -13 3 -8 2 6 6 -20 -20 -20 -20 -20 -20 -20 -17 -20 -20 -20 -20 -20 -20 -20 -20 -20 -20 -20 -20 -20 -20 -20 -20 -20 -20 -20 -20 -20 -20 -20 -20 -20 -20 -20 -20 -20 -20
-19 -20 -20 -18 -20 -20 -20 -6 9 2 -20 -1 -20 -20 -20 -20 -20 -19 -14 -9 -20 -20 -20 -16 -20 -20 -20 -20 -20 -20 -20 -20 -20 -20 -20 -20 -20 -20 -20 -20 -20 -20 -20 -20 -20 -20 -20

GFSGBSN_prec_radar_135.txt.gz
Reflectivity
17 16 15 4 -6 5 -20 -4 -4 -4 2 0 -20 -20 -20 20 20 26 39 23 30 -20 -20 -9 -17 13 11 35 21 1 -16 -20 -20 -20 -20 -20 -20 -20 -20 -20 -20 -20 -20 -20 -20 -20 -20
17 10 6 5 -1 1 -14 -20 -3 -20 -20 -20 -20 -20 -20 16 27 24 34 25 -2 12 15 -15 -20 -17 32 36 26 -7 -20 -20 -20 -20 -20 -20 -20 -20 -20 -20 -20 -20 -20 -20 -20 -20 -20
16 10 7 1 3 -2 -16 -20 -20 -20 -20 -20 -20 -20 -20 -3 16 14 20 17 -4 -19 -8 -9 -1 26 16 2 15 -20 -20 -20 -20 -20 -20 -20 -20 -20 -20 -20 -20 -20 -20 -20 -20 -20 -20
7 16 4 17 2 3 -11 -20 -20 -20 -20 -20 -20 -20 -20 -20 -6 21 11 12 -2 5 -7 2 3 -19 5 4 -19 -20 -20 -20 -20 -20 -20 -20 -20 -20 -20 -20 -20 -20 -20 -20 -20 -20 -20
13 17 1 15 2 7 13 -20 -20 -20 -20 -20 -20 -20 -20 -20 -20 -10 16 10 21 -15 -20 -20 -17 -6 20 -0 -20 -20 -20 -20 -20 -20 -20 -20 -20 -20 -20 -20 -20 -20 -20 -20 -20 -20 -20
18 16 14 2 6 -12 -9 -20 -20 -20 -20 -20 -20 -20 -20 -20 -20 -19 9 16 12 9 -18 -19 -14 -9 -6 -20 -20 -20 -20 -20 -20 -20 -20 -20 -20 -20 -20 -20 -20 -20 -20 -20 -20 -20 -20
10 16 12 17 17 10 -2 4 -20 -20 -20 -20 -20 -20 -20 -20 -20 -20 -2 -14 -20 -20 -20 -20 -19 -5 6 -13 -20 -20 -20 -20 -20 -20 -20 -20 -20 -20 -20 -20 -20 -20 -20 -20 -20 -20 -20
16 4 7 9 13 16 -4 -20 -20 -20 -20 -20 -20 -20 -20 -20 -20 -20 -20 -20 -20 -20 -20 -20 -20 -20 -20 -20 -20 -20 -20 -20 -20 -20 -20 -20 -20 -20 -20 -20 -20 -20 -20 -20 -20 -20 -20
16 -10 -15 -13 13 -19 4 -20 -20 -20 -20 -20 -20 -20 -20 -20 -20 -20 -20 -20 -20 -20 -20 -20 -20 -20 -20 -19 -20 -20 -20 -20 -20 -20 -20 -20 -20 -20 -20 -20 -20 -20 -20 -20 -20 -20 -20
14 13 -20 -20 -18 -19 -13 -14 -20 -20 -20 -20 -20 -20 -20 -20 -20 -20 -20 -20 -20 -20 -20 -20 -20 -20 -20 -20 -20 -20 -20 -20 -20 -20 -20 -20 -20 -20 -20 -20 -20 -20 -20 -20 -20 -20 -20
19 15 -20 -20 -20 -20 -20 -20 -20 -20 -20 -20 -20 -20 -20 -20 -20 -20 -20 -20 -20 -20 -20 -20 -20 -20 -20 -20 -20 -20 -20 -20 -20 -20 -20 -20 -20 -20 -20 -20 -20 -20 -20 -20 -20 -20 -20
4 16 -20 -20 -20 -20 -20 -20 -20 -20 -20 -20 -20 -20 -20 -20 -20 -20 -20 -20 -20 -20 -20 -20 -20 -20 -20 -20 -20 -20 -20 -20 -20 -20 -20 -20 -20 -20 -20 -20 -20 -20 -20 -20 -20 -20 -20
-20 -0 -20 -20 -20 -20 -20 -20 -20 -20 -20 -20 -20 -20 -20 -20 -20 -20 -20 -20 -20 -20 -20 -20 -20 -20 -20 -20 -20 -20 -20 -20 -20 -20 -20 -20 -20 -20 -20 -20 -20 -20 -20 -20 -20 -20 -20
12 -20 -20 -20 -20 -20 -20 -20 -20 -20 -20 -20 -20 -20 -20 -20 -20 -20 -20 -20 -20 -20 -20 -20 -20 -20 -20 -20 -20 -20 -20 -20 -20 -20 -20 -20 -20 -20 -20 -20 -20 -20 -20 -20 -20 -20 -20
11 -20 -20 -20 -20 -20 -20 -20 -20 -20 -20 -20 -20 -20 -20 -20 -20 -20 -20 -20 -20 -20 -20 -20 -20 -20 -20 -20 -20 -20 -20 -20 -20 -20 -20 -20 -20 -20 -20 -20 -20 -20 -20 -20 -20 -20 -20
7 3 -20 -20 -20 -20 -20 -20 -20 -20 -20 -20 -20 -20 -20 -20 -20 -20 -20 -20 -20 -20 -20 -20 -20 -20 -20 -20 -20 -20 -20 -20 -20 -20 -20 -20 -20 -20 -20 -20 -20 -20 -20 -20 -20 -20 -20
14 7 -7 -20 -20 -20 -20 -20 -20 -20 -20 -20 -20 -20 -20 -20 -20 -20 -20 -20 -20 -20 -20 -20 -20 -20 -20 -20 -20 -20 -20 -20 -20 -20 -20 -20 -20 -20 -20 -20 -20 -20 -20 -20 -20 -20 -20
15 7 8 -20 -20 -20 -20 -20 -20 -20 -20 -20 -20 -20 -20 -20 -20 -20 -20 -20 -20 -20 -20 -20 -20 -20 -20 -20 -20 -20 -20 -20 -20 -20 -20 -20 -20 -20 -20 -20 -20 -20 -20 -20 -20 -20 -20
7 10 -8 -20 -20 -20 -20 -20 -20 -20 -20 -20 -20 -20 -20 -20 -20 -20 -20 -20 -20 -20 -20 -20 -20 -20 -20 -20 -20 -20 -20 -20 -20 -20 -20 -20 -20 -20 -20 -20 -20 -20 -20 -20 -20 -20 -20
14 12 -6 -11 -20 -20 -20 -20 -20 -20 -20 -20 -20 -20 -20 -20 -20 -20 -20 -20 -20 -20 -20 -20 -20 -20 -20 -20 -20 -20 -20 -20 -20 -20 -20 -20 -20 -20 -20 -20 -20 -20 -20 -20 -20 -20 -20
-15 -5 1 -7 -20 -20 -20 -20 -20 -20 -20 -20 -20 -20 -20 -20 -20 -20 -20 -20 -20 -20 -20 -20 -20 -20 -20 -20 -20 -20 -20 -20 -20 -20 -20 -20 -20 -20 -20 -20 -20 -20 -20 -20 -20 -20 -20
-20 -20 -10 11 12 8 -20 -20 -20 -20 -20 -20 -20 -20 -20 -20 -20 -20 -20 -20 -20 -20 -20 -20 -20 -20 -20 -20 -20 -20 -20 -20 -20 -20 -20 -20 -20 -20 -20 -20 -20 -20 -20 -20 -20 -20 -20
-20 -20 -20 -20 -6 7 -8 -20 -20 -20 -20 -20 -20 -20 -20 -20 -20 -20 -20 -20 -20 -20 -20 -20 -20 -20 -20 -20 -20 -20 -20 -20 -20 -20 -20 -20 -20 -20 -20 -20 -20 -20 -20 -20 -20 -20 -20
-6 -20 -20 -20 -20 -20 -20 -20 -20 -20 -20 -20 -20 -20 -20 -20 -20 -20 -20 -20 -20 -20 -20 -20 -20 -20 -20 -20 -20 -20 -20 -20 -20 -20 -20 -20 -20 -20 -20 -20 -20 -20 -20 -20 -20 -20 -20
11 9 -15 -20 -20 -20 -20 -20 -20 -20 -20 -20 -20 -20 -20 -20 -20 -20 -20 -20 -20 -20 -20 -20 -20 -20 -20 -20 -20 -20 -20 -20 -20 -20 -20 -20 -20 -20 -20 -20 -20 -20 -20 -20 -20 -20 -20
8 -6 14 3 -19 -20 -20 -5 -20 -20 -20 -20 -20 -20 -20 -20 -20 -20 -20 -20 -20 -20 -20 -20 -20 -20 -20 -20 -20 -20 -20 -20 -20 -20 -20 -20 -20 -20 -20 -20 -20 -20 -20 -20 -20 -20 -20
11 9 14 15 15 12 7 9 9 -17 -20 -20 -20 -20 -20 -20 -20 -20 -20 -20 -20 -20 -20 -20 -20 -20 -20 -20 -20 -20 -20 -20 -20 -20 -20 -20 -20 -20 -20 -20 -20 -20 -20 -20 -20 -20 -20
-20 -10 5 -11 7 9 -1 -14 -3 -15 -20 -20 -20 -20 -20 -20 -20 -20 -20 -20 -20 -20 -9 -20 -20 -20 -20 -20 -20 -20 -20 -20 -20 -20 -20 -20 -20 -20 -11 -20 -20 -20 -20 -20 -20 -20 -20
-20 -20 -20 -20 -20 -20 -20 -20 -20 -11 -3 -19 -20 -20 -20 -20 -20 -20 -20 -20 -20 -19 -18 8 1 -12 -20 -20 -20 -20 -20 -20 -20 -20 -20 -20 -20 -20 -20 -20 -20 -20 -20 -20 -20 -20 -20

GFSGBSN_prec_radar_138.txt.gz
Reflectivity
2 2 -14 -17 1 5 -20 -20 -20 -7 -1 -20 -20 -20 -14 -18 15 13 23 25 -12 5 -4 10 11 -4 13 35 14 -1 7 1 -14 -20 -20 -20 -20 -20 -20 -20 -20 -20 -20 -20 -20 -20 -20
2 5 11 -20 -20 2 -20 -20 -20 -20 -20 -20 -20 -20 -20 -5 -20 22 21 22 22 18 21 9 24 31 -6 35 17 -9 -20 -20 -20 -20 -20 -20 -20 -20 -20 -20 -20 -20 -20 -20 -20 -20 -20
-2 -6 15 7 -20 3 2 -20 -20 -20 -20 -20 -20 -20 -20 -20 6 -19 -2 -18 14 -12 0 16 31 34 36 25 -15 -9 -20 -20 -20 -20 -20 -20 -20 -20 -20 -20 -20 -20 -20 -20 -20 -20 -20
-2 -4 -14 -4 -20 -20 -8 -20 -20 -20 -20 -20 -20 -20 -20 -20 -10 -19 5 2 -20 -18 -4 7 23 36 14 27 -15 -20 -20 -20 -20 -20 -20 -20 -20 -20 -20 -20 -20 -20 -20 -20 -20 -20 -20
-2 -5 3 14 -6 -2 -10 -18 -20 -20 -20 -20 -20 -20 -20 -20 -13 -20 -7 -5 1 16 14 12 5 27 -4 -6 -16 -20 -20 -20 -20 -20 -20 -20 -20 -20 -20 -20 -20 -20 -20 -20 -20 -20 -20
-8 4 -8 -20 9 -20 -20 -4 -20 -20 -20 -20 -20 -20 -20 -20 -20 -20 -20 -20 -5 -17 -20 -20 -10 -0 6 -20 -20 -20 -20 -20 -20 -20 -20 -20 -20 -20 -20 -20 -20 -20 -20 -20 -20 -20 -20
-8 -11 -20 -12 -20 -20 -20 -20 -20 -20 -20 -20 -20 -20 -20 -20 -20 -20 -20 -20 -20 -20 -20 -20 -20 -20 -14 -20 -20 -20 -20 -20 -20 -20 -20 -20 -20 -20 -20 -20 -20 -20 -20 -20 -20 -20 -20
10 -19 -20 -20 -20 -20 -20 -20 -20 -20 -20 -20 -20 -20 -20 -20 -20 -20 -20 -20 -20 -20 -20 -20 -19 -20 -20 -14 -20 -20 -20 -20 -20 -20 -20 -20 -20 -20 -20 -20 -20 -20 -20 -20 -20 -20 -20
14 -20 -20 -20 -20 -20 -20 -20 -20 -20 -20 -20 -20 -20 -20 -20 -20 -20 -20 -20 -20 -20 -20 -20 -20 -20 -20 -20 -20 -20 -20 -20 -20 -20 -20 -20 -20 -20 -20 -20 -20 -20 -20 -20 -20 -20 -20
14 13 -20 -20 -20 -20 -20 -20 -20 -20 -20 -20 -20 -20 -20 -20 -20 -20 -20 -20 -20 -20 -20 -20 -20 -20 -20 -20 -20 -20 -20 -20 -20 -20 -20 -20 -20 -20 -20 -20 -20 -20 -20 -20 -20 -20 -20
15 15 7 -20 -20 -20 -20 -20 -20 -20 -20 -20 -20 -20 -20 -20 -20 -20 -20 -20 -20 -20 -20 -20 -20 -20 -20 -20 -20 -20 -20 -20 -20 -20 -20 -20 -20 -20 -20 -20 -20 -20 -20 -20 -20 -20 -20
4 14 15 -17 -20 -20 -20 -20 -20 -20 -20 -20 -20 -20 -20 -20 -20 -20 -20 -20 -20 -0 -20 -20 -20 -20 -20 -20 -20 -20 -20 -20 -20 -20 -20 -20 -20 -20 -20 -20 -20 -20 -20 -20 -20 -20 -20
11 -18 1 1 -20 -20 -20 -20 -20 -20 -20 -20 -20 -20 -20 -20 -20 -20 -20 -20 -20 -20 -20 -20 -20 -20 -20 -20 -20 -20 -20 -20 -20 -20 -20 -20 -20 -20 -20 -20 -20 -20 -20 -20 -20 -20 -20
10 11 -20 -20 -20 -20 -20 -20 -20 -20 -20 -20 -20 -20 -20 -20 -20 -20 -20 -20 -20 -20 -20 -20 -20 -20 -20 -20 -20 -20 -20 -20 -20 -20 -20 -20 -20 -20 -20 -20 -20 -20 -20 -20 -20 -20 -20
-17 0 1 -20 -20 -20 -20 -20 -20 -20 -20 -18 -20 -20 -20 -20 -20 -20 -20 -20 -20 -20 -20 -20 -20 -20 -20 -20 -20 -20 -20 -20 -20 -20 -20 -20 -20 -20 -20 -20 -20 -20 -20 -20 -20 -20 -20
-5 -20 -15 -20 -20 -20 -20 -20 -20 -20 -20 -20 -20 -20 -20 -20 -20 -20 -20 -20 -20 -20 -20 -20 -20 -20 -20 -20 -20 -20 -20 -20 -20 -20 -20 -20 -20 -20 -20 -20 -20 -20 -20 -20 -20 -20 -20
0 -20 -20 -20 -20 -20 -20 -20 -20 -20 -20 -20 -20 -20 -20 -20 -20 -20 -20 -20 -20 -20 -20 -20 -20 -20 -20 -20 -20 -20 -20 -20 -20 -20 -20 -20 -20 -20 -20 -20 -20 -20 -20 -20 -20 -20 -20
4 -19 -20 -20 -20 -20 -20 -20 -20 -20 -20 -20 -20 -20 -20 -20 -20 -20 -20 -20 -20 -20 -20 -20 -20 -20 -20 -20 -20 -20 -20 -20 -20 -20 -20 -20 -20 -20 -20 -20 -20 -20 -20 -20 -20 -20 -20
-4 -12 -20 -20 -20 -20 -20 -20 -20 -20 -20 -20 -20 -20 -20 -20 -20 -20 -20 -20 -20 -20 -20 -20 -20 -20 -20 -20 -20 -20 -20 -20 -20 -20 -20 -20 -20 -20 -20 -20 -20 -20 -20 -20 -20 -20 -20
-20 -18 -20 -20 -20 -20 -20 -20 -20 -20 -20 -20 -20 -20 -20 -20 -20 -20 -20 -20 -20 -20 -20 -20 -20 -20 -20 -20 -20 -20 -20 -20 -20 -20 -20 -20 -20 -20 -20 -20 -20 -20 -20 -20 -20 -20 -20
-20 -20 -20 -20 -20 -20 -20 -20 -20 -20 -20 -20 -20 -20 -20 -20 -20 -20 -20 -20 -20 -20 -20 -20 -20 -20 -20 -20 -20 -20 -20 -20 -20 -20 -20 -20 -20 -20 -20 -20 -20 -20 -20 -20 -20 -20 -20
-20 -20 -20 -20 -20 -20 -20 -20 -20 -20 -20 -20 -20 -20 -20 -20 -20 -20 -20 -20 -20 -20 -20 -20 -20 -20 -20 -20 -20 -20 -20 -20 -20 -20 -20 -20 -20 -20 -20 -20 -20 -20 -20 -20 -20 -20 -20
-20 -20 -20 -20 -20 -20 -20 -20 -20 -20 -20 -20 -20 -20 -20 -20 -20 -20 -20 -20 -20 -20 -20 -20 -20 -20 -20 -20 -20 -20 -20 -20 -20 -20 -20 -20 -20 -20 -20 -20 -20 -20 -20 -20 -20 -20 -20
-20 -20 -20 -20 -20 -20 -20 -20 -20 -20 -20 -20 -20 -20 -20 -20 -20 -20 -20 -20 -20 -20 -20 -20 -20 -20 -20 -20 -20 -20 -20 -20 -20 -20 -20 -20 -20 -20 -20 -20 -20 -20 -20 -20 -20 -20 -20
-20 -20 -20 -20 -20 -20 -20 -20 -20 -20 -20 -20 -20 -20 -20 -20 -20 -20 -20 -20 -20 -20 -20 -20 -20 -20 -20 -20 -20 -20 -20 -20 -20 -20 -20 -20 -20 -20 -20 -20 -20 -20 -20 -20 -20 -20 -20
12 -18 -20 -20 -20 -20 -20 -20 -20 -20 -20 -20 -20 -20 -20 -20 -20 -20 -20 -20 -20 -20 -20 -20 -20 -20 -20 -10 -20 -20 -20 -20 -20 -20 -20 -20 -20 -20 -20 -20 -20 -20 -20 -20 -20 -20 -20
-20 11 9 -20 -15 -20 -20 -20 -20 -20 -20 -20 -20 -20 -20 -20 -20 -20 -20 -20 -20 -20 -20 -20 -20 -20 -20 -0 -20 -20 -20 -20 -20 -20 -20 -9 -20 -18 -20 -20 -20 -20 -20 -20 -20 -20 -20
-20 -20 13 12 11 -20 -20 -20 -20 -20 -20 -20 -20 -20 -20 -20 -20 -20 -20 -20 -20 -20 -20 -20 -20 -20 -20 6 -20 -20 -0 -20 -20 -20 -20 -20 -20 -19 -20 -20 -20 -20 -20 -20 -20 -20 -20
-19 -20 -20 -20 -20 -20 -20 -19 -20 -1 -1 -20 -20 -20 -20 -20 -20 -20 -20 -20 -20 -20 -20 -20 -20 -20 15 9 -19 -19 -20 -20 -18 -20 -20 -20 -20 -20 -20 -20 -20 -20 -20 -20 -20 -20 -20

GFSGBSN_prec_radar_141.txt.gz
Reflectivity
-1 -18 13 9 8 -15 -20 -20 -20 -20 -20 -20 -20 -20 -20 -20 -11 15 8 -2 7 -13 27 7 14 -6 24 9 32 37 33 30 -3 -20 -20 -20 -20 -20 -20 -20 -20 -20 -20 -20 -20 -20 -20
5 6 5 13 13 4 -20 -20 -20 -20 -20 -20 -20 -20 -20 -20 -20 20 27 17 2 -10 -20 -20 -20 3 6 26 31 26 15 20 7 -13 -20 -20 -20 -20 -20 -20 -20 -20 -20 -20 -20 -20 -20
-19 3 0 12 7 9 -8 -20 -20 -20 -20 -20 -20 -20 -20 -20 -20 -20 -16 -17 -1 2 -9 -20 -20 6 5 29 27 2 14 -12 3 -20 -20 -20 -20 -20 -20 -20 -20 -20 -20 -20 -20 -20 -20
2 -1 -20 -20 9 -12 -9 -20 -20 -20 -20 -20 -20 -20 -20 -20 -20 -20 -20 -7 -18 3 3 13 -0 -8 18 11 10 -19 -14 10 -20 -15 -20 -20 -20 -20 -20 -20 -20 -20 -20 -20 -20 -20 -20
-20 -20 -20 -18 -20 4 1 -20 -20 -20 -20 -20 -20 -20 -20 -20 -20 -20 -20 -20 -8 -20 -18 2 7 -4 1 5 -20 -20 -20 2 -20 -20 -20 -20 -20 -20 -20 -20 -20 -20 -20 -20 -20 -20 -20
-20 -20 -20 -20 -20 -18 -6 -20 -20 -20 -20 -20 -20 -20 -20 -20 -20 -20 -20 -18 -20 -20 -19 -20 -19 -13 2 -20 -20 -20 -20 -20 -8 -20 -20 -20 -20 -20 -20 -20 -20 -20 -20 -20 -20 -20 -20
2 -20 -20 -20 -20 -20 -8 -20 -20 -20 -20 -20 -20 -20 -20 -20 -20 -20 -20 -20 9 -16 -20 -20 1 -20 -20 -20 -20 -20 -20 -20 -8 -20 -20 -20 -20 -20 -20 -20 -20 -20 -20 -20 -20 -20 -20
14 -17 -20 -20 -20 -20 -20 -20 -20 -20 -20 -20 -20 -20 -20 -20 -20 -20 -20 -20 -20 -20 -18 -7 -19 -20 -20 -20 -20 -11 -20 -20 -20 -20 -20 -20 -20 -20 -20 -20 -20 -20 -20 -20 -20 -20 -20
13 11 -15 -20 -20 -20 -20 -20 -20 -20 -20 -20 -20 -20 -20 -20 -20 -20 -20 -20 -20 -20 -20 -20 -4 -11 -20 -20 -20 -20 -20 -20 -20 -20 -20 -20 -20 -20 -20 -20 -20 -20 -20 -20 -20 -20 -20
10 13 11 -12 -20 -20 -20 -20 -20 -20 -20 -20 -20 -20 -20 -20 -20 -20 -20 -20 -20 -20 -20 -20 -20 -20 -20 -20 -20 -20 -20 -20 -20 -20 -20 -20 -20 -20 -20 -20 -20 -20 -20 -20 -20 -20 -20
11 15 10 12 -20 -20 -20 -20 -20 -20 -20 -20 -20 -20 -20 -20 -20 -20 -20 -20 -20 -20 -20 -20 -20 -20 -20 -20 -20 -20 -20 -20 -20 -20 -20 -20 -20 -20 -20 -20 -20 -20 -20 -20 -20 -20 -20
15 4 -8 -0 -14 -20 -20 -20 -20 -20 -20 -20 -20 -20 -20 -20 -20 -20 -20 -20 -20 1 -20 -20 -20 -20 -20 -20 -20 -20 -20 -20 -20 -20 -20 -20 -20 -20 -20 -20 -20 -20 -20 -20 -20 -20 -20
6 -4 -6 -20 -20 -20 -20 -20 -20 -20 -20 -20 -20 -20 -20 -20 -20 -20 -20 -20 -20 -20 -20 -20 -20 -20 -20 -20 -20 -20 -20 -20 -20 -20 -20 -20 -20 -20 -20 -20 -20 -20 -20 -20 -20 -20 -20
4 -9 10 -20 -20 -20 -20 -20 -20 -20 -20 -20 -20 -20 -20 -20 -20 -20 -20 -20 -20 -20 -20 -20 -20 -20 -20 -20 -20 -20 -20 -20 -20 -20 -20 -20 -20 -20 -20 -20 -20 -20 -20 -20 -20 -20 -20
-6 -20 -20 -20 -20 -20 -20 -20 -20 -20 -20 -20 -20 -20 -20 -20 -20 -20 -20 -20 -20 -20 -20 -20 -20 -20 -20 -20 -20 -20 -20 -20 -20 -20 -20 -20 -20 -20 -20 -20 -20 -20 -20 -20 -20 -20 -20
-20 -18 -20 -20 -20 -20 -20 -20 -20 -20 -20 -20 -20 -20 -20 -20 -20 -20 -20 -20 -20 -20 -20 -20 -20 -20 -20 -20 -20 -20 -20 -20 -20 -20 -20 -20 -20 -20 -20 -20 -20 -20 -20 -20 -20 -20 -20
-20 -20 -20 -20 -20 -20 -20 -20 -20 -20 -20 -20 -20 -20 -20 -20 -20 -20 -20 -20 -20 -20 -20 -20 -20 -20 -20 -20 -20 -20 -20 -20 -20 -20 -20 -20 -20 -20 -20 -20 -20 -20 -20 -20 -20 -20 -20
-20 -20 -20 -20 -20 -20 -20 -20 -20 -20 -20 -20 -20 -0 -20 -20 -20 -20 -20 -20 -20 -20 -20 -20 -20 -20 -20 -20 -20 -20 -20 -20 -20 -20 -20 -20 -20 -20 -20 -20 -20 -20 -20 -20 -20 -20 -20
-20 -20 -20 -20 -20 -20 -20 -20 -20 -20 -20 -20 -20 -20 -20 -20 -20 -20 -20 -20 -20 -20 -20 -20 -20 -20 -20 -20 -20 -20 -20 -20 -20 -20 -20 -20 -20 -20 -20 -20 -20 -20 -20 -20 -20 -20 -20
-20 -20 -20 -20 -20 -20 -20 -20 -20 -20 -20 -20 -20 3 -20 -20 -20 -20 -20 -20 -20 -20 -20 -20 -20 -20 -20 -20 -20 -20 -20 -20 -20 -20 -20 -20 -20 -20 -20 -20 -20 -20 -20 -20 -20 -20 -20
-20 -20 -20 -20 -20 -20 -20 -20 -20 -20 -20 -20 -20 -20 -20 -20 -20 -20 -20 -20 -20 -20 -20 -20 -20 -20 -20 -20 -20 -20 -20 -20 -20 -20 -20 -20 -20 -20 -20 -20 -20 -20 -20 -20 -20 -20 -20
-20 -20 -20 -20 -20 -20 -20 -20 -20 -20 -20 -20 -20 -20 -20 -20 -20 -20 -20 -20 -20 -20 -20 -20 -20 -20 -20 -20 -20 -20 -20 -20 -20 -20 -20 -20 -20 -20 -20 -20 -20 -20 -20 -20 -20 -20 -20
-20 -20 -20 -20 -20 -20 -20 -20 -20 -20 -20 -20 -20 -20 -20 -20 -20 -20 -20 -20 -20 -20 -20 -20 -20 -20 -20 -20 -20 -20 -20 -20 -20 -20 -20 -20 -20 -20 -20 -20 -20 -20 -20 -20 -20 -20 -20
-20 -20 -20 -20 -20 -20 -20 -20 -20 -20 -20 -20 -20 -20 -20 -20 -20 -20 -20 -20 -20 -20 -20 -20 -20 -20 -20 -20 -20 -20 -20 -20 -20 -20 -20 -20 -20 -20 -20 -20 -20 -20 -20 -20 -20 -20 -20
10 -12 -20 -20 -20 -20 -20 -20 -20 -20 -20 -20 -20 -20 -20 -20 -20 -20 -20 -20 -20 -20 -20 -20 -20 -20 -20 -20 -20 -20 -20 -20 -20 -20 -20 -20 -20 -20 -20 -20 -20 -20 -20 -20 -20 -20 -20
10 11 10 -19 -8 -5 -20 -20 -20 -20 -20 -20 -20 -20 -20 -20 -20 -20 -20 -20 -20 -20 -20 -20 -20 -20 -20 -20 -20 -20 -20 -20 -20 -20 -20 -20 -20 -20 -20 -20 -20 -20 -20 -20 -20 -20 -20
8 -1 0 -16 -20 -2 10 -20 -20 -20 -20 -20 -20 -20 -20 -20 -20 -20 -20 -20 -20 -20 -20 -20 -20 -20 -20 -20 -20 -20 -20 -20 -20 -20 -20 -20 -20 -20 -20 -20 -20 -20 -20 -20 -20 -20 -20
-8 11 -14 -14 -20 -20 10 0 -20 -18 -12 -20 -20 -20 -20 -20 -20 -20 -20 -20 -20 -20 -20 -20 -20 -20 -20 -20 -20 -20 -20 -20 -17 -15 -18 -3 -20 -20 -20 -20 -20 -20 -20 -20 -20 -20 -20
9 -2 -17 -20 -20 -20 -20 -20 -20 -6 -6 -0 -20 -20 -20 -20 -20 -20 -20 -20 -20 -20 -20 -20 -20 -20 -20 -20 -20 -20 -20 -20 -20 -20 -3 -9 -20 -20 -20 -20 -20 -20 -20 -20 -20 -20 -20

GFSGBSN_prec_radar_144.txt.gz
Reflectivity
7 15 -2 0 -16 5 -20 -20 -20 -20 -20 -20 -20 -20 7 -20 -20 -20 -20 -18 15 -9 0 -11 29 -5 -14 -20 11 18 38 34 30 15 -20 -20 -20 -20 -20 -20 -20 -20 -20 -20 -20 -20 -20
17 9 12 -2 -3 6 -3 -20 -20 -20 -20 -20 -20 -20 -20 -20 -20 -20 -20 5 -4 -20 7 -2 -2 -19 -18 11 12 19 32 33 -11 1 6 -20 -20 -20 -20 -20 -20 -20 -20 -20 -20 -20 -20
12 -2 16 -11 -20 -1 13 -4 -20 -14 -20 -20 -20 -20 -20 -20 -20 -20 -18 10 2 -20 10 17 -5 3 13 21 23 24 23 16 14 -8 -18 -20 -20 -20 -20 -20 -20 -20 -20 -20 -20 -20 -20
16 -16 8 11 -20 -11 -20 -17 -20 -20 -19 -20 -20 -20 -20 -20 -20 -20 -20 -20 -17 16 4 -18 -5 -8 10 10 2 -14 4 1 -5 9 -0 9 -20 -20 -20 -20 -20 -20 -20 -20 -20 -20 -20
-8 10 -17 -15 1 -20 -20 -20 -20 -20 -20 -20 -20 -20 -20 -20 -20 -20 -20 -20 -20 -18 -20 -20 -20 -5 5 -6 -15 2 -4 10 11 -17 -20 -20 -20 -20 -20 -20 -20 -20 -20 -20 -20 -20 -20
8 -4 -20 -12 -20 -20 -20 -20 -20 -20 -20 -20 -20 -20 -20 -20 -20 -20 -20 -20 -20 -20 -20 -20 -20 3 -20 -20 -20 -20 -19 1 6 -20 -20 -20 -20 -20 -20 -20 -20 -20 -20 -20 -20 -20 -20
13 15 -20 -20 -20 -20 -20 -20 -20 -20 -20 -20 -20 -20 -20 -20 -20 -20 -20 -20 -20 -20 -20 -20 3 -19 -20 -20 -20 -20 -20 -20 1 -5 -20 -20 -20 -20 -20 -20 -20 -20 -20 -20 -20 -20 -20
1 16 16 -16 -20 -20 -20 -20 -20 -20 -20 -20 -20 -20 -20 -20 -20 -20 -20 -20 -20 -20 -20 -20 -20 -20 -20 -19 -20 -20 -20 -20 -20 -14 -20 -20 -20 -20 -20 -20 -20 -20 -20 -20 -20 -20 -20
3 8 14 11 -4 -20 -20 -20 -20 -20 -20 -20 -20 -20 -20 -20 -20 -20 -20 -20 -20 -20 -20 -20 -20 -20 -20 -20 -20 -20 -20 -20 -20 -20 -20 -20 -20 -20 -20 -20 -20 -20 -20 -20 -20 -20 -20
15 16 8 10 -20 -20 -20 -20 -20 -20 -20 -20 -20 -20 -20 -20 -20 -20 -20 -20 -20 -20 -20 -20 -20 -20 -20 -20 -20 -20 -20 -5 -19 -2 -20 -20 -20 -20 -20 -20 -20 -20 -20 -20 -20 -20 -20
-19 2 -10 -20 -20 -20 -20 -20 -20 -20 -20 -20 -20 -20 -20 -20 -20 -20 -20 -20 -20 -20 -20 -20 -20 -20 -20 -20 -20 -20 -20 -20 -13 -0 -1 -20 -20 -20 -20 -20 -20 -20 -20 -20 -20 -20 -20
-20 -18 -20 -20 -20 -20 -20 -20 -20 -20 -20 -20 -20 -20 -20 -20 -20 -20 -20 -20 -20 -20 -20 -20 -20 -20 -20 -20 -20 -20 -20 -20 -20 -20 -20 -20 -20 -20 -20 -20 -20 -20 -20 -20 -20 -20 -20
-20 -20 -20 -20 -20 -20 -20 -20 -20 -20 -20 -20 -20 -20 -20 -20 -20 -20 -20 -20 -20 -20 -20 -20 -20 -20 -20 -20 -20 -20 -20 -20 -20 -20 -20 -20 -20 -20 -20 -20 -20 -20 -20 -20 -20 -20 -20
-20 -20 -20 -20 -20 -20 -20 -20 -20 -20 -20 -20 -20 -20 -20 -20 -20 -20 -20 -20 -20 -20 -20 -20 -20 -20 -20 -20 -20 -20 -20 -20 -20 -20 -20 -20 -20 -20 -20 -20 -20 -20 -20 -20 -20 -20 -20
-20 -20 -20 -20 -20 -20 -20 -20 -20 -20 -20 -20 -20 -20 -20 -20 -20 -20 -20 -20 -20 -20 -20 -20 -20 -20 -20 -20 -20 -20 -20 -20 -20 -20 -20 -20 -20 -20 -20 -20 -20 -20 -20 -20 -20 -20 -20
-20 -20 -20 -20 -20 -20 -20 -20 -20 -20 -20 -20 -20 -20 -20 -20 -20 -20 -20 -20 -20 -20 -20 -20 -20 -20 -20 -20 -20 -20 -20 -20 -20 -20 -20 -20 -20 -20 -20 -20 -20 -20 -20 -20 -20 -20 -20
-20 -20 -20 -20 -20 -20 -20 -20 -20 -20 -20 -20 -20 -20 -20 -20 -20 -20 -20 -20 -20 -20 -20 -20 -20 -20 -20 -20 -20 -20 -20 -20 -20 -20 -20 -20 -20 -20 -20 -20 -20 -20 -20 -20 -20 -20 -20
-20 -20 -20 -20 -20 -20 -20 -20 -20 -20 -20 -20 -20 -20 -20 -20 -20 -20 -20 -20 -20 -20 -20 -20 -20 -20 -20 -20 -20 -20 -20 -20 -20 -20 -20 -20 -20 -20 -20 -20 -20 -20 -20 -20 -20 -20 -20
-20 -20 -20 -20 -20 -20 -20 -20 -20 -20 -20 -20 -20 -20 -20 -20 -20 -20 -20 -20 -20 -20 -20 -20 -20 -20 -20 -20 -20 -20 -20 -20 -20 -20 -20 -20 -20 -20 -20 -20 -20 -20 -20 -20 -20 -20 -20
-20 -20 -20 -20 -20 -20 -20 -20 -20 -20 -20 -20 -20 -20 -20 -20 -20 -20 -20 -20 -20 -20 -20 -20 -20 -20 -20 -20 -20 -20 -20 -20 -20 -20 -20 -20 -20 -20 -20 -20 -20 -20 -20 -20 -20 -20 -20
-20 -20 -20 -20 -20 -20 -20 -20 -20 -20 -20 -20 -20 -20 -20 -20 -20 -20 -20 -20 -20 -20 -20 -20 -20 -20 -20 -20 -20 -20 -20 -20 -20 -20 -20 -20 -20 -20 -20 -20 -20 -20 -20 -20 -20 -20 -20
-20 -20 -20 -20 -20 -20 -20 -20 -20 -20 -20 -20 -20 -20 -20 -20 -20 -20 -20 -20 -20 -20 -20 -20 -20 -20 -20 -20 -20 -20 -20 -20 -20 -20 -20 -20 -20 -20 -20 -20 -20 -20 -20 -20 -20 -20 -20
-20 -20 -20 -20 -20 -20 -20 -20 -20 -20 -20 -20 -20 -20 -20 -20 -20 -20 -20 -20 -20 -20 -20 -20 -20 -20 -20 -20 -20 -20 -20 -20 -20 -20 -20 -20 -20 -20 -20 -20 -20 -20 -20 -20 -20 -20 -20
1 -20 -20 -20 -20 -20 -20 -20 -20 -20 -20 -20 -20 -20 -20 -20 -20 -20 -20 -20 -20 -20 -20 -20 -20 -20 -20 -20 -20 -20 -20 -20 -20 -20 -20 -20 -20 -20 -20 -20 -20 -20 -20 -20 -20 -20 -20
-20 -20 -15 -20 -20 -20 -20 -20 -20 -20 -20 -20 -20 -20 -20 -20 -20 -20 -20 -20 -20 -20 -20 -20 -20 -20 -20 -20 -20 -20 -20 -20 -20 -20 -20 -20 -20 -20 -20 -20 -20 -20 -20 -20 -20 -20 -20
1 -20 -18 -20 -16 9 -8 -20 -20 -20 -20 -20 -20 -20 -20 -20 -20 -20 -20 -20 -20 -20 -20 -20 -20 -20 -20 -20 -20 -20 -20 -20 -20 -20 -20 -20 -20 -20 -20 -20 -20 -20 -20 -20 -20 -20 -20
-5 2 2 -2 3 -20 -20 -14 7 -20 -20 -20 -20 -20 -20 -20 -20 -20 -20 -20 -20 -20 -20 -20 -20 -20 -20 -20 -20 -20 -20 -20 -20 -20 -20 -20 -20 -20 -20 -20 -20 -20 -20 -20 -20 -20 -20
-20 -20 -20 10 -20 -20 -20 -2 11 15 -17 -20 -20 -20 -20 -20 -20 -20 -20 -20 -20 -20 -20 -20 -20 -20 -20 -20 -20 -20 -20 -20 -20 -20 -20 -20 -20 -20 -20 -20 -20 -20 -20 -20 -20 -20 -20
-7 -20 -20 -20 6 -20 -20 -20 -20 -18 0 -6 -20 -20 -20 -20 -20 -20 -20 -20 -20 -20 -20 -20 -20 -20 -20 -20 -20 -20 -20 -20 -20 -20 -20 -20 -20 -20 -20 -20 -18 -8 -20 -20 -20 -20 -20